FW3681 Weather Reports


Display with metric or nautical units.
time (UTC)temp
F
wind
direction
speed
MPH
gust
MPH
rain 1hr
in
rain 24hr
in
rain mn
in
humidity
%
barometer
mb
20260508013506 74 295 3.0 3.0 0.00 1.05 1.05 88 1012.9
20260508013402 74 314 2.0 3.0 0.00 1.05 1.05 88 1012.8
20260508013302 74 300 3.0 3.0 0.00 1.05 1.05 88 1012.8
20260508013202 74 307 2.0 3.0 0.00 1.05 1.05 88 1012.8
20260508013006 74 304 3.0 3.0 0.00 1.05 1.05 87 1012.8
20260508012902 74 321 2.0 4.0 0.00 1.05 1.05 87 1012.8
20260508012802 74 309 2.0 4.0 0.00 1.05 1.05 87 1012.7
20260508012505 74 309 2.0 4.0 0.00 1.05 1.05 87 1012.7
20260508012402 74 314 2.0 4.0 0.00 1.05 1.05 87 1012.8
20260508012307 74 305 2.0 4.0 0.00 1.05 1.05 87 1012.8
20260508012204 74 316 2.0 4.0 0.00 1.05 1.05 87 1012.7
20260508012103 74 303 2.0 4.0 0.00 1.05 1.05 87 1012.7
20260508011902 74 316 2.0 4.0 0.00 1.05 1.05 87 1012.7
20260508011702 75 316 3.0 4.0 0.00 1.05 1.05 87 1012.7
20260508011602 75 323 2.0 4.0 0.00 1.05 1.05 87 1012.7
20260508011505 74 305 2.0 4.0 0.00 1.05 1.05 87 1012.7
20260508011203 75 323 3.0 5.0 0.00 1.05 1.05 87 1012.7
20260508011102 75 338 4.0 5.0 0.00 1.05 1.05 87 1012.7
20260508010902 75 312 2.0 5.0 0.00 1.05 1.05 87 1012.7
20260508010802 75 302 3.0 5.0 0.00 1.05 1.05 87 1012.6
20260508010702 75 316 3.0 5.0 0.00 1.05 1.05 87 1012.6
20260508010303 75 289 3.0 5.0 0.00 1.05 1.05 88 1012.5
20260508010006 75 314 2.0 5.0 0.00 1.05 1.05 88 1012.4
20260508005904 75 326 2.0 5.0 0.00 1.05 1.05 88 1012.4
20260508005804 75 314 2.0 5.0 0.00 1.05 1.05 88 1012.4
20260508005704 75 309 3.0 5.0 0.00 1.05 1.05 88 1012.4
20260508005603 75 323 2.0 5.0 0.00 1.05 1.05 88 1012.4
20260508005505 75 319 2.0 5.0 0.00 1.05 1.05 89 1012.5
20260508005402 75 312 3.0 5.0 0.00 1.05 1.05 89 1012.4
20260508005306 75 296 3.0 5.0 0.00 1.05 1.05 89 1012.4
20260508005203 75 338 2.0 5.0 0.00 1.05 1.05 89 1012.5
20260508004903 75 319 2.0 5.0 0.00 1.05 1.05 89 1012.5
20260508004803 75 321 3.0 5.0 0.00 1.05 1.05 89 1012.5
20260508004702 75 314 2.0 5.0 0.00 1.05 1.05 89 1012.5
20260508004603 75 300 4.0 5.0 0.00 1.05 1.05 89 1012.4
20260508004506 75 305 2.0 4.0 0.00 1.05 1.05 89 1012.5
20260508004304 75 296 2.0 4.0 0.00 1.05 1.05 89 1012.5
20260508004203 75 285 3.0 3.0 0.00 1.05 1.05 89 1012.5
20260508004103 75 321 3.0 3.0 0.00 1.05 1.05 89 1012.4
20260508004006 75 321 2.0 3.0 0.00 1.05 1.05 89 1012.5
20260508003604 75 317 2.0 3.0 0.00 1.05 1.05 89 1012.6
20260508003505 75 307 2.0 3.0 0.00 1.05 1.05 89 1012.4
20260508003403 75 323 2.0 3.0 0.00 1.05 1.05 89 1012.4
20260508003303 75 294 2.0 3.0 0.00 1.05 1.05 89 1012.4
20260508003203 75 323 2.0 3.0 0.00 1.05 1.05 89 1012.4
20260508003104 75 340 1.0 3.0 0.00 1.05 1.05 89 1012.4
20260508003008 75 305 2.0 3.0 0.00 1.05 1.05 89 1012.4
20260508002903 75 8 0.0 3.0 0.00 1.05 1.05 89 1012.4
20260508002803 75 274 1.0 3.0 0.00 1.05 1.05 89 1012.4
20260508002703 75 309 2.0 3.0 0.00 1.05 1.05 89 1012.4
20260508002604 75 333 0.0 3.0 0.00 1.05 1.05 89 1012.4
20260508002505 75 317 2.0 3.0 0.00 1.05 1.05 89 1012.4
20260508002404 75 328 1.0 3.0 0.00 1.05 1.05 89 1012.3
20260508002306 75 309 2.0 3.0 0.00 1.05 1.05 89 1012.3
20260508002205 75 342 1.0 3.0 0.00 1.05 1.05 89 1012.3
20260508002103 75 347 1.0 3.0 0.00 1.05 1.05 89 1012.3
20260508002007 75 338 0.0 3.0 0.00 1.05 1.05 89 1012.3
20260508001904 75 317 3.0 3.0 0.00 1.05 1.05 89 1012.3
20260508001803 75 15 1.0 3.0 0.00 1.05 1.05 89 1012.3
20260508001704 75 311 2.0 3.0 0.00 1.05 1.05 89 1012.3
20260508001604 75 356 2.0 3.0 0.00 1.05 1.05 89 1012.3
20260508001404 75 304 2.0 3.0 0.00 1.05 1.05 88 1012.2
20260508001303 75 303 2.0 3.0 0.00 1.05 1.05 88 1012.2
20260508001203 75 311 2.0 3.0 0.00 1.05 1.05 88 1012.2
20260508001103 75 330 2.0 3.0 0.00 1.05 1.05 88 1012.2
20260508000904 75 295 0.0 3.0 0.00 1.05 1.05 88 1012.1
20260508000803 75 340 2.0 3.0 0.00 1.05 1.05 88 1012.0
20260508000702 75 301 0.0 3.0 0.00 1.05 1.05 88 1012.1
20260508000604 75 314 1.0 3.0 0.00 1.05 1.05 88 1012.0
20260508000506 75 312 0.0 3.0 0.00 1.05 1.05 88 1012.0
20260508000405 76 294 2.0 4.0 0.00 1.05 1.05 88 1012.0
20260508000305 76 302 2.0 4.0 0.00 1.05 1.05 88 1012.0
20260508000204 76 317 1.0 4.0 0.00 1.05 1.05 88 1011.9
20260508000104 76 314 3.0 4.0 0.00 1.05 1.05 88 1011.9
20260508000007 76 296 2.0 4.0 0.00 1.05 1.05 88 1011.9
20260507235902 76 317 2.0 4.0 0.00 1.05 1.05 88 1011.8
20260507235802 76 319 2.0 4.0 0.00 1.05 1.05 88 1011.8
20260507235703 76 321 2.0 4.0 0.00 1.05 1.05 88 1011.8
20260507235602 76 330 2.0 4.0 0.00 1.05 1.05 88 1011.7
20260507235506 76 347 3.0 4.0 0.00 1.05 1.05 88 1011.8
20260507235306 76 312 2.0 4.0 0.00 1.05 1.05 88 1011.8
20260507235203 76 328 2.0 4.0 0.00 1.05 1.05 88 1011.8
20260507235104 76 319 2.0 4.0 0.00 1.05 1.05 88 1011.8
20260507235006 76 314 3.0 4.0 0.00 1.05 1.05 88 1011.8
20260507234902 76 312 2.0 4.0 0.00 1.05 1.05 88 1011.8
20260507234803 76 309 2.0 4.0 0.00 1.05 1.05 88 1011.8
20260507234602 76 321 1.0 3.0 0.00 1.05 1.05 88 1011.8
20260507234505 76 321 3.0 3.0 0.00 1.05 1.05 87 1011.9
20260507234402 76 301 2.0 3.0 0.00 1.05 1.05 87 1011.8
20260507234303 76 284 1.0 3.0 0.00 1.05 1.05 87 1011.8
20260507234202 76 288 1.0 3.0 0.00 1.05 1.05 87 1011.7
20260507234102 76 294 1.0 3.0 0.00 1.05 1.05 87 1011.8
20260507234006 76 311 2.0 3.0 0.00 1.05 1.05 87 1011.8
20260507233803 76 275 2.0 3.0 0.00 1.05 1.05 87 1011.7
20260507233403 76 328 2.0 4.0 0.00 1.05 1.05 87 1012.0
20260507233302 76 326 2.0 4.0 0.00 1.05 1.05 87 1012.1
20260507233202 76 299 2.0 4.0 0.00 1.05 1.05 87 1012.1
20260507233103 76 279 2.0 4.0 0.00 1.05 1.05 87 1012.1
20260507233006 76 352 3.0 4.0 0.00 1.05 1.05 87 1012.1
20260507232802 76 314 0.0 4.0 0.00 1.05 1.05 87 1012.0
20260507232702 76 322 0.0 4.0 0.00 1.05 1.05 87 1012.1
20260507232602 76 314 0.0 4.0 0.00 1.05 1.05 87 1012.0
20260507232403 76 347 2.0 4.0 0.00 1.05 1.05 87 1011.9
20260507232306 77 305 1.0 3.0 0.00 1.05 1.05 86 1012.0
20260507232102 77 286 2.0 3.0 0.00 1.05 1.05 86 1011.9
20260507232005 77 309 2.0 3.0 0.00 1.05 1.05 86 1011.9
20260507231903 77 293 2.0 3.0 0.00 1.05 1.05 86 1012.0
20260507231701 77 314 3.0 3.0 0.00 1.05 1.05 86 1012.1
20260507231602 77 262 3.0 3.0 0.00 1.05 1.05 86 1012.0
20260507231505 77 292 2.0 3.0 0.00 1.05 1.05 86 1011.9
20260507231402 77 305 2.0 3.0 0.00 1.05 1.05 85 1011.9
20260507231302 77 295 1.0 3.0 0.00 1.05 1.05 85 1012.0
20260507231203 77 302 2.0 3.0 0.00 1.05 1.05 85 1012.0
20260507231102 77 296 2.0 3.0 0.00 1.05 1.05 85 1012.0
20260507231007 77 295 2.0 3.0 0.00 1.05 1.05 85 1012.0
20260507230902 78 292 2.0 4.0 0.00 1.05 1.05 85 1012.0
20260507230702 77 338 0.0 4.0 0.00 1.05 1.05 85 1012.0
20260507230602 77 312 2.0 4.0 0.00 1.05 1.05 85 1012.0
20260507230505 77 338 0.0 4.0 0.00 1.05 1.05 85 1012.0
20260507230401 77 265 3.0 4.0 0.00 1.05 1.05 85 1011.9
20260507230301 77 328 1.0 4.0 0.00 1.05 1.05 85 1011.9
20260507230203 77 293 2.0 4.0 0.00 1.05 1.05 85 1011.9
20260507225902 77 321 2.0 3.0 0.00 1.05 1.05 84 1011.9
20260507225802 77 295 3.0 4.0 0.00 1.05 1.05 84 1011.8
20260507225602 78 293 3.0 5.0 0.00 1.05 1.05 84 1011.8
20260507225506 78 283 2.0 5.0 0.00 1.05 1.05 84 1011.8
20260507225403 78 335 2.0 5.0 0.00 1.05 1.05 84 1011.8
20260507225305 77 321 1.0 5.0 0.00 1.05 1.05 84 1011.8
20260507225204 77 319 2.0 5.0 0.00 1.05 1.05 84 1011.8
20260507225104 78 340 3.0 5.0 0.00 1.05 1.05 84 1011.9
20260507225007 78 304 3.0 5.0 0.00 1.05 1.05 84 1011.9
20260507224901 78 275 3.0 5.0 0.00 1.05 1.05 84 1012.0
20260507224803 78 317 4.0 5.0 0.00 1.05 1.05 84 1012.0
20260507224702 78 286 2.0 5.0 0.00 1.05 1.05 84 1011.9
20260507224602 78 302 2.0 5.0 0.00 1.05 1.05 84 1012.0
20260507224505 78 275 3.0 5.0 0.00 1.05 1.05 84 1012.0
20260507224403 78 312 3.0 7.0 0.00 1.05 1.05 84 1011.9
20260507224303 78 271 3.0 7.0 0.00 1.05 1.05 84 1012.0
20260507224202 78 324 3.0 7.0 0.00 1.05 1.05 84 1011.9
20260507224103 78 285 3.0 7.0 0.00 1.05 1.05 84 1012.0
20260507224006 78 314 3.0 7.0 0.00 1.05 1.05 84 1011.9
20260507223902 78 265 3.0 7.0 0.00 1.05 1.05 84 1011.9
20260507223802 78 37 1.0 7.0 0.00 1.05 1.05 84 1012.0
20260507223602 78 277 4.0 7.0 0.00 1.05 1.05 84 1012.0
20260507223505 78 345 4.0 7.0 0.00 1.05 1.05 84 1012.0
20260507223403 78 258 1.0 4.0 0.00 1.05 1.05 84 1012.0
20260507223102 78 295 2.0 5.0 0.00 1.05 1.05 84 1012.1
20260507223006 78 288 3.0 5.0 0.00 1.05 1.05 84 1012.1
20260507222803 78 312 3.0 5.0 0.00 1.05 1.05 84 1012.1
20260507222702 78 356 2.0 5.0 0.00 1.05 1.05 84 1012.1
20260507222602 78 307 3.0 5.0 0.00 1.05 1.05 84 1012.1
20260507222506 78 303 2.0 5.0 0.00 1.05 1.05 84 1012.1
20260507222403 78 278 4.0 5.0 0.00 1.05 1.05 84 1012.2
20260507222306 78 314 4.0 5.0 0.00 1.05 1.05 84 1012.1
20260507222202 78 311 2.0 5.0 0.00 1.05 1.05 84 1012.1
20260507222103 78 287 3.0 5.0 0.00 1.05 1.05 84 1012.0
20260507222007 78 326 1.0 5.0 0.00 1.05 1.05 84 1012.0
20260507221902 78 351 1.0 5.0 0.00 1.05 1.05 84 1011.9
20260507221803 78 275 3.0 5.0 0.00 1.05 1.05 84 1011.9
20260507221702 78 151 1.0 6.0 0.00 1.05 1.05 84 1012.0
20260507221506 78 301 2.0 6.0 0.00 1.05 1.05 85 1012.0
20260507221402 78 284 3.0 6.0 0.00 1.05 1.05 85 1011.9
20260507221203 78 295 2.0 6.0 0.00 1.05 1.05 84 1012.0
20260507221006 78 266 3.0 6.0 0.00 1.05 1.05 85 1012.0
20260507220903 78 292 2.0 6.0 0.00 1.05 1.05 84 1012.0
20260507220602 78 299 3.0 4.0 0.00 1.05 1.05 85 1012.0
20260507220506 78 286 3.0 4.0 0.00 1.05 1.05 85 1012.0
20260507220401 78 302 2.0 4.0 0.00 1.05 1.05 85 1012.0
20260507220303 78 281 3.0 4.0 0.00 1.05 1.05 85 1012.0
20260507220202 78 311 2.0 4.0 0.00 1.05 1.05 85 1012.0
20260507220010 78 293 3.0 4.0 0.00 1.05 1.05 85 1012.0
20260507215902 78 283 1.0 4.0 0.00 1.05 1.05 85 1012.1
20260507215802 78 287 2.0 4.0 0.00 1.05 1.05 85 1012.1
20260507215505 78 293 3.0 4.0 0.00 1.05 1.05 84 1012.1
20260507215301 78 281 3.0 4.0 0.00 1.05 1.05 85 1012.2
20260507215203 78 300 2.0 4.0 0.00 1.05 1.05 85 1012.2
20260507215103 78 288 2.0 4.0 0.00 1.05 1.05 85 1012.1
20260507215007 78 252 0.0 4.0 0.00 1.05 1.05 85 1012.1
20260507214902 78 294 3.0 4.0 0.00 1.05 1.05 85 1012.2
20260507214801 78 310 2.0 4.0 0.00 1.05 1.05 84 1012.1
20260507214702 78 275 3.0 4.0 0.00 1.05 1.05 84 1012.1
20260507214602 78 321 3.0 4.0 0.00 1.05 1.05 85 1012.0
20260507214403 78 271 3.0 5.0 0.00 1.05 1.05 85 1012.0
20260507214302 78 307 1.0 5.0 0.00 1.05 1.05 84 1011.9
20260507214202 78 266 3.0 5.0 0.00 1.05 1.05 85 1012.0
20260507214102 78 274 2.0 5.0 0.00 1.05 1.05 84 1011.9
20260507214005 78 261 2.0 5.0 0.00 1.05 1.05 84 1012.0
20260507213902 78 225 2.0 5.0 0.00 1.05 1.05 84 1012.0
20260507213803 78 264 0.0 5.0 0.00 1.05 1.05 84 1012.0
20260507213703 78 254 2.0 5.0 0.00 1.05 1.05 84 1012.0
20260507213506 78 283 4.0 5.0 0.00 1.05 1.05 84 1011.9
20260507213203 78 288 3.0 5.0 0.00 1.05 1.05 84 1011.8
20260507213102 78 279 4.0 4.0 0.00 1.05 1.05 84 1011.9
20260507213006 78 284 3.0 4.0 0.00 1.05 1.05 85 1011.8
20260507212902 78 267 3.0 4.0 0.00 1.05 1.05 85 1011.9
20260507212803 78 272 4.0 4.0 0.00 1.05 1.05 85 1011.9
20260507212702 78 262 2.0 4.0 0.00 1.05 1.05 85 1011.9
20260507212602 77 253 2.0 4.0 0.00 1.05 1.05 86 1011.8
20260507212506 77 286 3.0 4.0 0.00 1.05 1.05 85 1011.8
20260507212402 77 277 3.0 4.0 0.00 1.05 1.05 85 1011.8
20260507212306 77 307 0.0 4.0 0.00 1.05 1.05 85 1011.8
20260507212202 77 236 0.0 4.0 0.00 1.05 1.05 85 1011.9
20260507212103 77 275 2.0 4.0 0.00 1.05 1.05 85 1011.9
20260507212007 77 271 3.0 4.0 0.00 1.05 1.05 85 1011.9
20260507211902 77 265 0.0 4.0 0.00 1.05 1.05 84 1011.9
20260507211802 77 278 2.0 4.0 0.00 1.05 1.05 84 1011.9
20260507211702 77 285 2.0 4.0 0.00 1.05 1.05 84 1011.8
20260507211505 77 277 4.0 4.0 0.00 1.05 1.05 84 1011.9
20260507211402 78 293 3.0 5.0 0.00 1.05 1.05 84 1011.9
20260507211202 78 309 0.0 5.0 0.00 1.05 1.05 84 1011.8
20260507211103 78 263 4.0 5.0 0.00 1.05 1.05 84 1011.8
20260507210902 78 333 3.0 5.0 0.00 1.05 1.05 83 1011.7
20260507210802 78 262 3.0 5.0 0.00 1.05 1.05 83 1011.8
20260507210505 78 270 5.0 6.0 0.00 1.05 1.05 84 1011.8
20260507210402 78 285 2.0 6.0 0.00 1.05 1.05 83 1011.7
20260507210302 78 286 3.0 6.0 0.00 1.05 1.05 83 1011.6
20260507210203 78 271 3.0 8.0 0.00 1.05 1.05 83 1011.7
20260507210103 78 289 3.0 8.0 0.00 1.05 1.05 84 1011.8
20260507210007 78 292 3.0 8.0 0.00 1.05 1.05 84 1011.8
20260507205804 78 305 3.0 8.0 0.00 1.05 1.05 84 1011.8
20260507205602 78 323 3.0 8.0 0.00 1.05 1.05 85 1011.7
20260507205505 77 303 4.0 8.0 0.00 1.05 1.05 85 1011.8
20260507205402 77 301 2.0 8.0 0.00 1.05 1.05 85 1011.8
20260507205302 77 302 4.0 8.0 0.00 1.05 1.05 86 1011.8
20260507205102 77 280 3.0 6.0 0.00 1.05 1.05 86 1012.0
20260507205007 77 256 0.0 6.0 0.00 1.05 1.05 87 1012.0
20260507204902 77 263 3.0 6.0 0.00 1.05 1.05 86 1012.0
20260507204702 77 252 1.0 6.0 0.00 1.05 1.05 86 1012.0
20260507204505 77 261 3.0 6.0 0.00 1.05 1.05 87 1012.0
20260507204402 77 281 4.0 6.0 0.00 1.05 1.05 87 1012.1
20260507204302 77 270 3.0 4.0 0.00 1.05 1.05 86 1012.2
20260507204203 77 24 3.0 4.0 0.00 1.05 1.05 87 1012.1
20260507204103 77 286 3.0 4.0 0.00 1.05 1.05 87 1012.1
20260507204006 77 281 3.0 5.0 0.00 1.05 1.05 87 1012.1
20260507203803 77 294 2.0 5.0 0.00 1.05 1.05 87 1012.1
20260507203603 77 315 2.0 7.0 0.00 1.05 1.05 86 1012.0
20260507203506 77 297 3.0 7.0 0.00 1.05 1.05 86 1012.0
20260507203403 77 256 3.0 7.0 0.00 1.05 1.05 86 1012.0
20260507203302 77 273 2.0 7.0 0.00 1.05 1.05 86 1012.0
20260507203203 77 270 3.0 7.0 0.00 1.05 1.05 86 1012.0
20260507203102 77 17 4.0 7.0 0.00 1.05 1.05 86 1012.0
20260507203007 76 271 2.0 7.0 0.00 1.05 1.05 86 1012.0
20260507202902 76 272 3.0 7.0 0.00 1.05 1.05 86 1012.0
20260507202804 76 293 4.0 7.0 0.00 1.05 1.05 86 1012.0
20260507202703 77 319 5.0 7.0 0.00 1.05 1.05 87 1012.0
20260507202602 76 286 3.0 5.0 0.00 1.05 1.05 87 1012.1
20260507202404 76 314 0.0 5.0 0.00 1.05 1.05 87 1012.1
20260507202301 76 294 5.0 5.0 0.00 1.05 1.05 87 1012.1
20260507202102 76 282 3.0 5.0 0.00 1.05 1.05 87 1012.1
20260507202007 76 294 3.0 5.0 0.00 1.05 1.05 88 1012.1
20260507201902 76 284 2.0 5.0 0.00 1.05 1.05 88 1012.1
20260507201802 76 297 3.0 5.0 0.00 1.05 1.05 88 1012.0
20260507201702 76 281 2.0 5.0 0.00 1.05 1.05 88 1012.1
20260507201602 76 300 3.0 5.0 0.00 1.05 1.05 88 1012.2
20260507201505 76 307 4.0 5.0 0.01 1.05 1.05 89 1012.1
20260507201402 76 73 2.0 5.0 0.04 1.05 1.05 89 1012.2
20260507201304 76 303 2.0 6.0 0.04 1.05 1.05 89 1012.2
20260507201202 76 319 3.0 6.0 0.07 1.05 1.05 89 1012.3
20260507201102 75 302 3.0 6.0 0.07 1.05 1.05 89 1012.3
20260507201006 75 219 0.0 6.0 0.07 1.05 1.05 90 1012.3
20260507200902 75 314 3.0 6.0 0.08 1.05 1.05 90 1012.3
20260507200802 75 276 2.0 6.0 0.09 1.05 1.05 89 1012.4
20260507200703 75 340 2.0 6.0 0.10 1.05 1.05 90 1012.3
20260507200604 75 302 2.0 6.0 0.10 1.05 1.05 90 1012.4
20260507200506 75 8 2.0 6.0 0.10 1.05 1.05 90 1012.4
20260507200302 75 321 2.0 5.0 0.11 1.05 1.05 90 1012.5
20260507200203 75 307 4.0 5.0 0.11 1.05 1.05 91 1012.6
20260507200008 75 302 2.0 5.0 0.11 1.05 1.05 91 1012.6
20260507195902 75 301 5.0 5.0 0.11 1.05 1.05 91 1012.6
20260507195702 75 338 2.0 5.0 0.11 1.05 1.05 92 1012.6
20260507195602 74 275 3.0 6.0 0.11 1.05 1.05 91 1012.6
20260507195505 74 272 4.0 6.0 0.11 1.05 1.05 91 1012.6
20260507195402 74 302 4.0 6.0 0.11 1.05 1.05 91 1012.6
20260507195305 74 309 3.0 6.0 0.11 1.05 1.05 92 1012.5
20260507195202 74 295 2.0 6.0 0.11 1.05 1.05 91 1012.5
20260507195103 74 352 4.0 6.0 0.11 1.05 1.05 92 1012.4
20260507195006 74 309 2.0 6.0 0.11 1.05 1.05 92 1012.4
20260507194903 74 305 3.0 6.0 0.11 1.05 1.05 92 1012.5
20260507194703 74 295 3.0 6.0 0.11 1.05 1.05 92 1012.5
20260507194603 74 304 3.0 6.0 0.11 1.05 1.05 92 1012.5
20260507194506 74 302 3.0 6.0 0.11 1.05 1.05 92 1012.5
20260507194303 74 290 4.0 6.0 0.11 1.05 1.05 92 1012.4
20260507194103 74 314 5.0 6.0 0.11 1.05 1.05 92 1012.4
20260507194006 74 304 3.0 6.0 0.11 1.05 1.05 92 1012.4
20260507193902 74 319 3.0 6.0 0.11 1.05 1.05 92 1012.4
20260507193804 74 307 2.0 6.0 0.11 1.05 1.05 92 1012.4
20260507193702 74 290 4.0 6.0 0.11 1.05 1.05 92 1012.4
20260507193602 74 330 4.0 6.0 0.11 1.05 1.05 92 1012.5
20260507193505 74 321 4.0 6.0 0.11 1.05 1.05 92 1012.4
20260507193402 74 331 2.0 5.0 0.11 1.05 1.05 93 1012.4
20260507193302 74 273 3.0 5.0 0.11 1.05 1.05 93 1012.3
20260507193202 74 290 3.0 5.0 0.11 1.05 1.05 93 1012.2
20260507193102 74 323 2.0 5.0 0.11 1.05 1.05 92 1012.3
20260507193006 74 307 0.0 5.0 0.11 1.05 1.05 92 1012.3
20260507192803 74 336 4.0 5.0 0.11 1.05 1.05 93 1012.4
20260507192703 73 330 3.0 5.0 0.11 1.05 1.05 92 1012.4
20260507192602 73 17 3.0 5.0 0.11 1.05 1.05 92 1012.3
20260507192507 74 319 4.0 5.0 0.11 1.05 1.05 92 1012.3
20260507192202 74 311 2.0 5.0 0.11 1.05 1.05 93 1012.3
20260507192006 74 8 3.0 4.0 0.11 1.05 1.05 92 1012.3
20260507191802 73 323 2.0 4.0 0.11 1.05 1.05 92 1012.1
20260507191703 73 281 1.0 4.0 0.11 1.05 1.05 92 1012.0
20260507191603 73 234 0.0 4.0 0.11 1.05 1.05 92 1012.0
20260507191506 73 253 0.0 4.0 0.10 1.04 1.04 92 1012.0
20260507191402 73 45 0.0 4.0 0.07 1.01 1.01 91 1012.2
20260507191302 73 340 0.0 4.0 0.05 0.99 0.99 91 1012.3
20260507191202 73 328 1.0 4.0 0.04 0.98 0.98 91 1012.4
20260507191102 73 340 2.0 4.0 0.04 0.98 0.98 91 1012.4
20260507191006 73 330 3.0 4.0 0.04 0.98 0.98 91 1012.4
20260507190902 73 302 0.0 4.0 0.03 0.97 0.97 90 1012.5
20260507190802 73 338 4.0 4.0 0.02 0.96 0.96 90 1012.6
20260507190719 73 317 1.0 4.0 0.01 0.95 0.95 90 1012.6
20260507190603 73 3 0.0 5.0 0.01 0.95 0.95 90 1012.7
20260507190505 73 312 1.0 5.0 0.01 0.95 0.95 90 1012.8
20260507190403 73 253 0.0 5.0 0.01 0.95 0.95 89 1013.0
20260507190302 73 316 2.0 5.0 0.00 0.94 0.94 89 1012.9
20260507190203 73 303 2.0 5.0 0.00 0.94 0.94 89 1012.8
20260507190007 73 303 3.0 5.0 0.00 0.94 0.94 89 1013.0
20260507185903 73 295 3.0 5.0 0.00 0.94 0.94 89 1013.0
20260507185802 73 309 3.0 5.0 0.00 0.94 0.94 89 1013.0
20260507185702 73 307 5.0 5.0 0.00 0.94 0.94 89 1013.1
20260507185505 73 314 4.0 5.0 0.00 0.94 0.94 89 1013.0
20260507185402 73 293 4.0 5.0 0.00 0.94 0.94 89 1013.0
20260507185305 73 300 3.0 5.0 0.00 0.94 0.94 89 1013.0
20260507185202 73 262 3.0 5.0 0.00 0.94 0.94 89 1013.1
20260507184902 73 302 3.0 5.0 0.00 0.94 0.94 89 1013.1
20260507184802 74 333 2.0 5.0 0.00 0.94 0.94 89 1013.0
20260507184702 74 356 2.0 5.0 0.00 0.94 0.94 89 1013.1
20260507184602 73 300 3.0 6.0 0.00 0.94 0.94 88 1013.1
20260507184505 74 311 1.0 6.0 0.00 0.94 0.94 89 1013.1
20260507184402 74 300 3.0 6.0 0.00 0.94 0.94 89 1013.1
20260507184301 74 271 3.0 6.0 0.00 0.94 0.94 88 1013.1
20260507184202 74 359 2.0 6.0 0.00 0.94 0.94 89 1013.2
20260507184102 74 328 1.0 6.0 0.00 0.94 0.94 88 1013.1
20260507183902 74 280 3.0 6.0 0.00 0.94 0.94 88 1012.9
20260507183702 74 265 3.0 6.0 0.00 0.94 0.94 88 1012.8
20260507183603 74 193 0.0 5.0 0.00 0.94 0.94 88 1012.8
20260507183505 74 281 3.0 6.0 0.00 0.94 0.94 88 1012.8
20260507183403 74 293 3.0 6.0 0.00 0.94 0.94 88 1012.9
20260507183302 74 265 4.0 6.0 0.00 0.94 0.94 88 1013.0
20260507183103 74 265 3.0 6.0 0.00 0.94 0.94 88 1013.1
20260507182902 74 294 2.0 6.0 0.00 0.94 0.94 88 1013.1
20260507182804 74 285 3.0 6.0 0.00 0.94 0.94 88 1013.0
20260507182702 74 283 3.0 7.0 0.00 0.94 0.94 87 1013.0
20260507182602 75 276 6.0 7.0 0.00 0.94 0.94 87 1013.0
20260507182506 75 275 4.0 8.0 0.00 0.94 0.94 88 1013.0
20260507182402 75 268 2.0 8.0 0.00 0.94 0.94 88 1012.9
20260507182306 75 351 3.0 8.0 0.00 0.94 0.94 88 1013.0
20260507182203 75 59 3.0 8.0 0.00 0.94 0.94 88 1013.0
20260507182102 75 314 2.0 8.0 0.00 0.94 0.94 88 1013.0
20260507182006 75 285 3.0 8.0 0.00 0.94 0.94 88 1013.0
20260507181902 75 246 1.0 8.0 0.00 0.94 0.94 88 1013.1
20260507181802 75 289 4.0 8.0 0.00 0.94 0.94 89 1013.1
20260507181703 75 310 1.0 8.0 0.00 0.94 0.94 88 1013.2
20260507181602 75 283 3.0 6.0 0.00 0.94 0.94 89 1013.1
20260507181402 75 293 4.0 6.0 0.00 0.94 0.94 89 1013.1
20260507181303 75 241 1.0 6.0 0.00 0.94 0.94 88 1013.0
20260507181202 75 287 4.0 6.0 0.00 0.94 0.94 88 1013.0
20260507181102 75 289 0.0 6.0 0.00 0.94 0.94 88 1013.0
20260507181005 75 286 4.0 6.0 0.00 0.94 0.94 89 1013.0
20260507180901 75 280 5.0 6.0 0.00 0.94 0.94 90 1013.0
20260507180802 75 272 1.0 6.0 0.00 0.94 0.94 91 1012.9
20260507180702 75 295 2.0 6.0 0.00 0.94 0.94 91 1012.8
20260507180603 75 293 2.0 6.0 0.00 0.94 0.94 91 1012.9
20260507180505 75 300 5.0 5.0 0.00 0.94 0.94 91 1012.8
20260507180402 74 309 4.0 5.0 0.00 0.94 0.94 91 1012.8
20260507180302 74 316 2.0 5.0 0.00 0.94 0.94 92 1012.8
20260507175902 74 275 3.0 7.0 0.00 0.94 0.94 92 1012.8
20260507175803 74 302 4.0 7.0 0.00 0.94 0.94 93 1012.9
20260507175702 73 271 4.0 7.0 0.00 0.94 0.94 92 1012.9
20260507175602 73 285 2.0 7.0 0.00 0.94 0.94 92 1012.8
20260507175506 73 338 3.0 7.0 0.00 0.94 0.94 92 1012.8
20260507175402 73 300 4.0 7.0 0.00 0.94 0.94 92 1013.0
20260507175306 73 287 2.0 7.0 0.00 0.94 0.94 93 1013.1
20260507175103 73 284 1.0 5.0 0.00 0.94 0.94 94 1013.0
20260507175006 73 262 2.0 5.0 0.00 0.94 0.94 94 1013.0
20260507174901 73 283 4.0 7.0 0.00 0.94 0.94 95 1012.9
20260507174803 73 261 0.0 7.0 0.00 0.94 0.94 94 1013.0
20260507174702 73 264 2.0 7.0 0.00 0.94 0.94 95 1013.0
20260507174602 73 296 3.0 7.0 0.00 0.94 0.94 94 1013.1
20260507174507 73 328 1.0 7.0 0.00 0.94 0.94 95 1013.1
20260507174403 72 263 4.0 7.0 0.00 0.94 0.94 95 1013.0
20260507174203 72 288 3.0 7.0 0.00 0.94 0.94 94 1013.1
20260507174005 72 282 4.0 7.0 0.00 0.94 0.94 95 1013.2
20260507173902 72 129 4.0 5.0 0.00 0.94 0.94 95 1013.3
20260507173702 73 248 3.0 8.0 0.00 0.94 0.94 96 1013.3
20260507173603 73 314 0.0 8.0 0.00 0.94 0.94 96 1013.3
20260507173506 73 275 4.0 8.0 0.00 0.94 0.94 96 1013.3
20260507173402 72 263 4.0 8.0 0.00 0.94 0.94 96 1013.3
20260507173302 72 250 3.0 8.0 0.00 0.94 0.94 96 1013.3
20260507173203 72 295 0.0 8.0 0.00 0.94 0.94 95 1013.3
20260507173102 72 316 3.0 8.0 0.00 0.94 0.94 95 1013.4
20260507173007 72 305 2.0 8.0 0.00 0.94 0.94 95 1013.4
20260507172902 72 289 5.0 8.0 0.00 0.94 0.94 96 1013.4
20260507172802 72 288 4.0 7.0 0.00 0.94 0.94 96 1013.4
20260507172702 72 310 5.0 7.0 0.01 0.94 0.94 96 1013.5
20260507172602 72 312 3.0 7.0 0.01 0.94 0.94 96 1013.4
20260507172505 72 314 3.0 7.0 0.01 0.94 0.94 96 1013.4
20260507172402 72 295 3.0 7.0 0.01 0.94 0.94 96 1013.1
20260507172306 72 10 4.0 7.0 0.01 0.94 0.94 96 1013.1
20260507172202 72 328 3.0 7.0 0.02 0.94 0.94 96 1013.2
20260507172102 72 107 4.0 7.0 0.02 0.94 0.94 96 1013.3
20260507171802 71 316 2.0 5.0 0.03 0.94 0.94 96 1013.5
20260507171701 71 319 2.0 5.0 0.04 0.94 0.94 96 1013.6
20260507171506 71 57 2.0 5.0 0.05 0.94 0.94 96 1013.5
20260507171402 71 275 0.0 5.0 0.06 0.94 0.94 96 1013.5
20260507171202 71 311 2.0 5.0 0.09 0.94 0.94 96 1013.5
20260507171102 71 285 0.0 5.0 0.10 0.94 0.94 96 1013.5
20260507171006 71 265 1.0 5.0 0.10 0.94 0.94 96 1013.5
20260507170902 71 321 0.0 5.0 0.10 0.94 0.94 96 1013.6
20260507170802 71 115 0.0 4.0 0.10 0.94 0.94 96 1013.5
20260507170702 71 1 0.0 4.0 0.10 0.94 0.94 96 1013.7
20260507170602 71 276 0.0 4.0 0.10 0.94 0.94 96 1013.6
20260507170506 71 41 0.0 3.0 0.10 0.94 0.94 96 1013.6
20260507170403 71 256 0.0 3.0 0.10 0.94 0.94 96 1013.6
20260507170303 71 149 0.0 4.0 0.10 0.94 0.94 96 1013.8
20260507170202 71 155 0.0 4.0 0.10 0.94 0.94 96 1013.8
20260507170006 71 139 1.0 4.0 0.10 0.94 0.94 96 1013.7
20260507165904 71 155 3.0 4.0 0.10 0.94 0.94 96 1013.9
20260507165801 71 139 3.0 4.0 0.11 0.94 0.94 96 1013.9
20260507165702 71 213 0.0 4.0 0.11 0.94 0.94 96 1013.9
20260507165603 71 197 0.0 4.0 0.11 0.94 0.94 96 1014.0
20260507165506 71 211 2.0 4.0 0.11 0.94 0.94 96 1014.0
20260507165403 71 41 3.0 3.0 0.11 0.94 0.94 96 1014.0
20260507165306 71 262 0.0 2.0 0.11 0.94 0.94 96 1013.9
20260507165202 71 228 0.0 2.0 0.11 0.94 0.94 96 1013.9
20260507165102 71 58 0.0 2.0 0.11 0.94 0.94 96 1013.8
20260507165007 71 58 0.0 2.0 0.11 0.94 0.94 96 1013.7
20260507164803 71 58 0.0 2.0 0.12 0.94 0.94 96 1013.6
20260507164702 71 58 0.0 2.0 0.12 0.94 0.94 96 1013.5
20260507164604 71 212 0.0 3.0 0.12 0.94 0.94 96 1013.5
20260507164506 71 141 0.0 3.0 0.12 0.94 0.94 96 1013.5
20260507164402 71 129 0.0 3.0 0.13 0.94 0.94 96 1013.7
20260507164203 71 76 0.0 3.0 0.13 0.94 0.94 96 1013.7
20260507164102 71 234 0.0 3.0 0.13 0.94 0.94 96 1013.8
20260507164005 70 234 0.0 3.0 0.13 0.94 0.94 96 1013.9
20260507163902 70 304 0.0 3.0 0.13 0.94 0.94 96 1014.0
20260507163801 70 323 0.0 3.0 0.13 0.94 0.94 96 1014.0
20260507163702 70 316 0.0 2.0 0.14 0.94 0.94 96 1014.0
20260507163602 70 309 0.0 2.0 0.14 0.94 0.94 96 1013.9
20260507163505 70 225 0.0 2.0 0.14 0.94 0.94 96 1013.9
20260507163402 70 225 1.0 2.0 0.14 0.94 0.94 96 1013.9
20260507163302 70 179 0.0 2.0 0.14 0.94 0.94 96 1013.9
20260507163201 70 179 0.0 2.0 0.14 0.94 0.94 96 1013.8
20260507163102 70 179 0.0 6.0 0.14 0.94 0.94 96 1013.8
20260507162804 70 234 0.0 6.0 0.15 0.94 0.94 96 1013.8
20260507162701 70 307 0.0 6.0 0.14 0.93 0.93 96 1013.6
20260507162602 70 335 0.0 6.0 0.14 0.93 0.93 96 1013.5
20260507162506 70 335 0.0 6.0 0.14 0.93 0.93 96 1013.5
20260507162402 70 312 0.0 6.0 0.15 0.93 0.93 96 1013.2
20260507162302 70 86 0.0 6.0 0.15 0.93 0.93 96 1012.9
20260507162202 70 72 4.0 6.0 0.14 0.92 0.92 96 1013.0
20260507162103 70 90 2.0 5.0 0.14 0.92 0.92 96 1012.9
20260507162005 70 60 4.0 5.0 0.14 0.92 0.92 96 1012.9
20260507161902 70 78 0.0 5.0 0.13 0.91 0.91 96 1013.1
20260507161803 70 71 2.0 5.0 0.13 0.91 0.91 96 1013.3
20260507161703 70 117 2.0 5.0 0.12 0.90 0.90 96 1013.7
20260507161604 70 143 4.0 4.0 0.11 0.89 0.89 96 1014.0
20260507161506 70 134 1.0 4.0 0.11 0.89 0.89 96 1014.3
20260507161402 70 98 2.0 4.0 0.09 0.87 0.87 96 1014.5
20260507161302 70 211 0.0 4.0 0.07 0.85 0.85 96 1014.6
20260507161203 70 130 0.0 4.0 0.07 0.85 0.85 95 1014.5
20260507161102 70 130 0.0 4.0 0.07 0.84 0.84 95 1014.5
20260507160902 70 66 0.0 4.0 0.07 0.84 0.84 95 1014.4
20260507160802 70 66 0.0 4.0 0.08 0.84 0.84 95 1014.4
20260507160703 70 66 0.0 4.0 0.08 0.84 0.84 95 1014.4
20260507160602 70 274 0.0 4.0 0.09 0.84 0.84 95 1014.3
20260507160504 70 324 1.0 4.0 0.09 0.84 0.84 95 1014.3
20260507160403 70 360 1.0 5.0 0.09 0.84 0.84 95 1013.9
20260507160302 70 324 3.0 5.0 0.09 0.84 0.84 95 1013.5
20260507160202 70 129 0.0 5.0 0.09 0.84 0.84 95 1013.3
20260507160008 70 132 3.0 5.0 0.09 0.84 0.84 95 1013.5
20260507155902 70 129 2.0 5.0 0.08 0.83 0.83 95 1014.0
20260507155802 70 101 0.0 8.0 0.09 0.83 0.83 95 1013.9
20260507155702 70 360 0.0 8.0 0.09 0.83 0.83 95 1013.7
20260507155602 70 120 2.0 8.0 0.09 0.83 0.83 95 1013.6
20260507155505 70 360 2.0 8.0 0.09 0.83 0.83 95 1013.6
20260507155403 70 153 0.0 8.0 0.10 0.83 0.83 95 1013.3
20260507155306 70 167 0.0 8.0 0.10 0.83 0.83 95 1013.1
20260507155203 70 122 2.0 8.0 0.10 0.83 0.83 95 1013.2
20260507155102 70 117 4.0 8.0 0.11 0.83 0.83 95 1013.4
20260507154902 70 146 3.0 5.0 0.10 0.82 0.82 95 1013.3
20260507154803 70 129 3.0 5.0 0.10 0.82 0.82 95 1013.7
20260507154703 70 120 0.0 4.0 0.10 0.82 0.82 95 1014.0
20260507154603 70 319 0.0 6.0 0.10 0.82 0.82 95 1014.1
20260507154505 70 303 0.0 6.0 0.09 0.81 0.81 95 1014.1
20260507154404 70 114 0.0 6.0 0.09 0.81 0.81 95 1013.8
20260507154202 70 155 0.0 6.0 0.10 0.81 0.81 95 1014.1
20260507154101 70 360 0.0 6.0 0.10 0.81 0.81 95 1014.0
20260507153802 70 75 1.0 6.0 0.10 0.80 0.80 95 1014.0
20260507153702 70 214 1.0 5.0 0.10 0.80 0.80 95 1013.8
20260507153604 70 17 0.0 5.0 0.10 0.80 0.80 95 1013.7
20260507153505 70 141 0.0 5.0 0.10 0.80 0.80 95 1013.6
20260507153402 70 70 4.0 5.0 0.10 0.80 0.80 95 1013.4
20260507153302 70 184 2.0 5.0 0.10 0.80 0.80 95 1013.3
20260507153202 70 131 2.0 5.0 0.10 0.80 0.80 95 1013.3
20260507153102 70 124 2.0 5.0 0.10 0.80 0.80 95 1013.5
20260507153006 70 160 1.0 5.0 0.09 0.79 0.79 95 1013.5
20260507152902 70 155 1.0 5.0 0.09 0.79 0.79 95 1013.5
20260507152801 70 120 3.0 5.0 0.09 0.79 0.79 95 1013.5
20260507152702 70 115 3.0 5.0 0.09 0.79 0.79 95 1013.6
20260507152601 70 122 3.0 5.0 0.09 0.79 0.79 95 1013.8
20260507152505 70 203 1.0 5.0 0.10 0.79 0.79 95 1013.7
20260507152305 70 183 0.0 6.0 0.09 0.78 0.78 95 1013.4
20260507152202 70 129 0.0 6.0 0.09 0.78 0.78 95 1013.3
20260507152102 70 139 0.0 6.0 0.09 0.78 0.78 95 1013.4
20260507152005 70 67 4.0 6.0 0.09 0.78 0.78 95 1013.4
20260507151901 70 90 0.0 6.0 0.09 0.78 0.78 95 1013.3
20260507151802 70 125 3.0 6.0 0.09 0.78 0.78 95 1013.5
20260507151702 70 360 3.0 6.0 0.09 0.78 0.78 95 1013.7
20260507151603 70 134 3.0 6.0 0.09 0.78 0.78 95 1013.7
20260507151505 70 113 0.0 6.0 0.09 0.78 0.78 95 1013.6
20260507151401 70 360 6.0 6.0 0.09 0.78 0.78 95 1013.6
20260507151303 70 76 3.0 6.0 0.09 0.78 0.78 95 1013.7
20260507151203 70 107 2.0 6.0 0.09 0.78 0.78 95 1013.7
20260507151102 70 92 4.0 6.0 0.08 0.77 0.77 95 1013.7
20260507151005 70 64 3.0 6.0 0.08 0.77 0.77 95 1013.6
20260507150903 70 360 2.0 6.0 0.08 0.77 0.77 95 1013.4
20260507150801 70 169 3.0 6.0 0.07 0.76 0.76 95 1013.3
20260507150702 70 148 2.0 6.0 0.07 0.76 0.76 95 1013.4
20260507150602 70 66 0.0 7.0 0.06 0.75 0.75 95 1013.3
20260507150505 70 131 2.0 7.0 0.06 0.75 0.75 95 1013.2
20260507150403 70 39 2.0 7.0 0.06 0.75 0.75 95 1013.2
20260507150303 70 360 1.0 7.0 0.06 0.75 0.75 95 1013.2
20260507150204 70 109 1.0 7.0 0.06 0.75 0.75 95 1013.2
20260507150006 70 106 3.0 7.0 0.06 0.75 0.75 95 1013.1
20260507145903 70 121 3.0 7.0 0.06 0.75 0.75 95 1013.2
20260507145802 70 165 1.0 7.0 0.06 0.74 0.74 95 1013.3
20260507145702 70 228 1.0 7.0 0.06 0.74 0.74 95 1013.3
20260507145601 70 172 3.0 6.0 0.06 0.74 0.74 95 1013.3
20260507145506 70 115 3.0 6.0 0.06 0.74 0.74 95 1013.3
20260507145402 70 160 2.0 6.0 0.05 0.73 0.73 95 1013.3
20260507145306 70 109 3.0 6.0 0.05 0.73 0.73 95 1013.3
20260507145201 70 66 6.0 6.0 0.05 0.73 0.73 95 1013.4
20260507145006 70 360 3.0 4.0 0.04 0.72 0.72 95 1013.4
20260507144903 70 105 3.0 4.0 0.04 0.72 0.72 95 1013.4
20260507144802 70 104 0.0 4.0 0.04 0.72 0.72 95 1013.3
20260507144702 70 95 2.0 5.0 0.04 0.72 0.72 95 1013.3
20260507144601 70 120 3.0 5.0 0.04 0.72 0.72 95 1013.2
20260507144505 70 117 2.0 5.0 0.04 0.72 0.72 95 1013.2
20260507144401 69 120 4.0 5.0 0.05 0.72 0.72 94 1013.3
20260507144302 69 122 2.0 5.0 0.04 0.71 0.71 94 1013.3
20260507144203 69 109 3.0 5.0 0.04 0.71 0.71 94 1013.4
20260507144102 69 115 4.0 5.0 0.04 0.71 0.71 94 1013.4
20260507144006 69 141 3.0 5.0 0.04 0.71 0.71 94 1013.5
20260507143903 69 360 3.0 5.0 0.04 0.71 0.71 94 1013.5
20260507143802 69 143 2.0 4.0 0.03 0.70 0.70 94 1013.4
20260507143702 69 120 3.0 4.0 0.03 0.70 0.70 94 1013.4
20260507143602 69 104 3.0 4.0 0.03 0.70 0.70 94 1013.4
20260507143402 69 108 2.0 5.0 0.04 0.70 0.70 94 1013.3
20260507143302 69 360 2.0 5.0 0.05 0.70 0.70 94 1013.4
20260507143202 69 144 2.0 5.0 0.05 0.70 0.70 94 1013.3
20260507143007 69 106 4.0 5.0 0.05 0.70 0.70 94 1013.5
20260507142902 69 120 3.0 5.0 0.05 0.70 0.70 94 1013.5
20260507142802 69 141 2.0 5.0 0.05 0.70 0.70 94 1013.3
20260507142703 69 127 4.0 5.0 0.05 0.70 0.70 94 1013.3
20260507142603 69 118 3.0 5.0 0.05 0.70 0.70 94 1013.4
20260507142506 69 134 3.0 4.0 0.04 0.69 0.69 94 1013.4
20260507142302 69 132 3.0 4.0 0.04 0.69 0.69 94 1013.3
20260507142202 69 116 3.0 4.0 0.04 0.69 0.69 94 1013.2
20260507142102 69 88 3.0 4.0 0.04 0.69 0.69 94 1013.3
20260507141903 69 120 3.0 5.0 0.04 0.69 0.69 93 1013.3
20260507141804 69 134 2.0 5.0 0.04 0.69 0.69 93 1013.2
20260507141703 69 104 3.0 5.0 0.04 0.69 0.69 93 1013.1
20260507141602 69 107 2.0 5.0 0.05 0.69 0.69 93 1012.9
20260507141403 69 360 3.0 5.0 0.05 0.69 0.69 93 1012.6
20260507141304 69 95 3.0 5.0 0.05 0.69 0.69 93 1012.5
20260507141102 69 98 4.0 5.0 0.06 0.69 0.69 93 1012.8
20260507141007 69 123 3.0 5.0 0.06 0.69 0.69 93 1012.8
20260507140902 69 124 3.0 5.0 0.07 0.69 0.69 93 1013.1
20260507140801 69 120 3.0 5.0 0.08 0.69 0.69 93 1013.2
20260507140703 69 127 1.0 5.0 0.08 0.69 0.69 93 1013.2
20260507140602 69 113 3.0 5.0 0.08 0.69 0.69 93 1013.1
20260507140506 69 137 3.0 5.0 0.08 0.69 0.69 92 1013.1
20260507140403 69 127 4.0 5.0 0.09 0.69 0.69 92 1013.1
20260507140302 69 124 4.0 5.0 0.09 0.69 0.69 92 1013.1
20260507140201 69 120 3.0 5.0 0.09 0.69 0.69 92 1013.2
20260507135901 69 104 3.0 4.0 0.10 0.69 0.69 92 1013.2
20260507135803 69 64 2.0 4.0 0.09 0.68 0.68 92 1013.2
20260507135702 68 109 0.0 4.0 0.10 0.68 0.68 92 1013.1
20260507135601 69 94 2.0 4.0 0.10 0.68 0.68 92 1013.0
20260507135506 69 107 3.0 4.0 0.10 0.68 0.68 92 1013.0
20260507135402 69 98 3.0 4.0 0.10 0.68 0.68 92 1013.2
20260507135305 69 121 3.0 5.0 0.10 0.68 0.68 92 1013.2
20260507135102 69 93 2.0 5.0 0.13 0.68 0.68 92 1013.2
20260507134802 69 91 3.0 7.0 0.17 0.68 0.68 92 1013.4
20260507134702 69 108 2.0 7.0 0.19 0.68 0.68 92 1013.4
20260507134506 69 106 3.0 7.0 0.21 0.68 0.68 92 1013.4
20260507134402 69 89 4.0 7.0 0.27 0.67 0.67 92 1013.5
20260507134302 69 109 4.0 7.0 0.27 0.67 0.67 92 1013.5
20260507134202 69 111 3.0 7.0 0.30 0.67 0.67 92 1013.5
20260507134102 69 111 3.0 6.0 0.35 0.67 0.67 92 1013.5
20260507134006 69 137 2.0 7.0 0.35 0.67 0.67 92 1013.5
20260507133901 69 136 1.0 7.0 0.43 0.67 0.67 92 1013.3
20260507133703 69 45 0.0 7.0 0.43 0.67 0.67 92 1013.3
20260507133603 69 86 2.0 7.0 0.44 0.67 0.67 92 1013.4
20260507133505 69 360 2.0 7.0 0.44 0.66 0.66 92 1013.4
20260507133402 69 81 2.0 7.0 0.45 0.66 0.66 91 1013.3
20260507133302 69 90 3.0 7.0 0.44 0.65 0.65 91 1013.2
20260507133203 69 105 4.0 7.0 0.44 0.65 0.65 91 1013.2
20260507133007 69 101 0.0 4.0 0.47 0.65 0.65 91 1013.5
20260507132902 69 94 3.0 5.0 0.49 0.65 0.65 91 1013.5
20260507132803 69 94 3.0 5.0 0.49 0.65 0.65 91 1013.7
20260507132703 69 98 0.0 5.0 0.52 0.65 0.65 91 1013.5
20260507132601 69 66 1.0 5.0 0.57 0.65 0.65 91 1013.5
20260507132506 69 41 0.0 5.0 0.57 0.65 0.65 91 1013.5
20260507132401 69 18 0.0 5.0 0.58 0.65 0.65 91 1013.3
20260507132306 69 20 1.0 5.0 0.58 0.65 0.65 91 1013.3
20260507132201 69 89 0.0 5.0 0.58 0.65 0.65 91 1013.2
20260507132102 69 79 1.0 5.0 0.58 0.65 0.65 91 1013.3
20260507131702 69 87 3.0 4.0 0.57 0.64 0.64 91 1013.4
20260507131506 69 108 2.0 5.0 0.57 0.64 0.64 90 1013.6
20260507131301 69 94 3.0 5.0 0.57 0.64 0.64 90 1013.7
20260507131203 69 86 2.0 5.0 0.56 0.63 0.63 90 1013.8
20260507131102 69 107 0.0 5.0 0.57 0.63 0.63 90 1013.8
20260507131006 69 65 2.0 5.0 0.56 0.62 0.62 90 1013.8
20260507130902 69 60 0.0 5.0 0.56 0.62 0.62 90 1013.7
20260507130802 69 51 0.0 5.0 0.55 0.61 0.61 90 1013.6
20260507130702 69 63 0.0 5.0 0.55 0.61 0.61 90 1013.6
20260507130602 69 73 3.0 5.0 0.56 0.61 0.61 90 1013.6
20260507130402 69 113 0.0 5.0 0.58 0.60 0.60 90 1013.5
20260507130302 69 94 1.0 5.0 0.59 0.60 0.60 90 1013.3
20260507130203 69 71 3.0 5.0 0.59 0.60 0.60 90 1013.3
20260507130007 69 55 3.0 10.0 0.58 0.59 0.59 89 1013.4
20260507125903 69 56 3.0 10.0 0.59 0.59 0.59 89 1013.4
20260507125802 69 60 2.0 10.0 0.59 0.59 0.59 89 1013.5
20260507125602 69 47 0.0 10.0 0.58 0.58 0.58 89 1013.5
20260507125506 69 55 3.0 10.0 0.58 0.58 0.58 89 1013.5
20260507125403 69 24 2.0 10.0 0.58 0.58 0.58 89 1013.6
20260507125306 69 51 2.0 10.0 0.58 0.58 0.58 89 1013.6
20260507125201 70 124 3.0 10.0 0.56 0.56 0.56 89 1013.7
20260507125103 70 228 2.0 10.0 0.55 0.55 0.55 89 1013.7
20260507125007 71 93 5.0 9.0 0.54 0.54 0.54 89 1013.9
20260507124803 71 125 5.0 9.0 0.51 0.51 0.51 89 1014.1
20260507124703 71 96 1.0 9.0 0.49 0.49 0.49 90 1014.1
20260507124602 72 105 3.0 9.0 0.46 0.46 0.46 89 1014.1
20260507124506 72 67 2.0 9.0 0.45 0.45 0.45 90 1014.1
20260507124403 72 62 0.0 9.0 0.41 0.41 0.41 90 1014.1
20260507124304 72 50 5.0 9.0 0.40 0.40 0.40 90 1014.0
20260507124201 72 186 1.0 8.0 0.37 0.37 0.37 90 1014.6
20260507123903 73 244 2.0 8.0 0.24 0.24 0.24 89 1014.3
20260507123802 73 275 8.0 8.0 0.24 0.24 0.24 90 1014.1
20260507123702 73 309 5.0 5.0 0.23 0.23 0.23 90 1014.0
20260507123602 73 333 2.0 5.0 0.22 0.22 0.22 90 1013.9
20260507123506 73 317 2.0 5.0 0.22 0.22 0.22 90 1013.9
20260507123401 73 8 2.0 5.0 0.21 0.21 0.21 90 1013.8
20260507123301 73 81 0.0 5.0 0.21 0.21 0.21 90 1013.9
20260507123202 73 72 1.0 5.0 0.20 0.20 0.20 90 1013.9
20260507123101 73 359 0.0 5.0 0.19 0.19 0.19 90 1014.1
20260507123007 73 8 1.0 5.0 0.19 0.19 0.19 90 1014.1
20260507122902 73 359 3.0 5.0 0.16 0.16 0.16 89 1014.2
20260507122802 73 3 3.0 5.0 0.13 0.13 0.13 89 1014.2
20260507122601 73 352 2.0 4.0 0.08 0.08 0.08 89 1014.2
20260507122505 73 323 2.0 4.0 0.07 0.07 0.07 89 1014.2
20260507122402 73 326 3.0 4.0 0.07 0.07 0.07 89 1014.0
20260507122306 73 340 3.0 3.0 0.07 0.07 0.07 89 1014.0
20260507122202 73 1 2.0 3.0 0.07 0.07 0.07 89 1013.9
20260507122103 73 32 0.0 3.0 0.07 0.07 0.07 89 1013.9
20260507122006 73 32 0.0 3.0 0.07 0.07 0.07 89 1013.9
20260507121902 73 32 0.0 3.0 0.07 0.07 0.07 89 1013.9
20260507121802 73 23 0.0 3.0 0.07 0.07 0.07 89 1013.8
20260507121703 73 23 1.0 3.0 0.07 0.07 0.07 88 1013.8
20260507121602 74 331 2.0 3.0 0.07 0.07 0.07 88 1013.7
20260507121505 73 46 1.0 3.0 0.07 0.07 0.07 89 1013.7
20260507121402 74 41 0.0 3.0 0.07 0.07 0.07 88 1013.7
20260507121301 74 46 2.0 3.0 0.07 0.07 0.07 88 1013.8
20260507121203 74 27 0.0 3.0 0.07 0.07 0.07 88 1013.9
20260507121102 74 13 0.0 3.0 0.06 0.06 0.06 88 1014.0
20260507121009 74 13 0.0 3.0 0.06 0.06 0.06 88 1014.0
20260507120901 74 39 0.0 3.0 0.06 0.06 0.06 88 1013.8
20260507120802 74 6 0.0 3.0 0.06 0.06 0.06 88 1013.8
20260507120701 74 358 0.0 3.0 0.06 0.06 0.06 88 1013.8
20260507120602 74 13 0.0 3.0 0.05 0.05 0.05 87 1013.7
20260507120506 74 359 0.0 3.0 0.03 0.03 0.03 87 1013.7
20260507120404 74 345 0.0 3.0 0.02 0.02 0.02 87 1013.6
20260507120301 74 338 1.0 6.0 0.01 0.01 0.01 87 1013.5
20260507120202 74 314 0.0 6.0 0.01 0.01 0.01 87 1013.4
20260507120008 74 323 0.0 6.0 0.01 0.01 0.01 87 1013.3
20260507115901 74 330 0.0 6.0 0.00 0.00 0.00 87 1013.2
20260507115802 74 314 0.0 7.0 0.00 0.00 0.00 87 1013.2
20260507115701 74 51 2.0 7.0 0.00 0.00 0.00 87 1013.2
20260507115601 74 347 0.0 7.0 0.00 0.00 0.00 87 1013.1
20260507115301 74 309 1.0 7.0 0.00 0.00 0.00 87 1013.0
20260507115201 74 316 2.0 7.0 0.00 0.00 0.00 87 1012.9
20260507115100 74 244 0.0 7.0 0.00 0.00 0.00 87 1012.9
20260507115006 74 305 0.0 7.0 0.00 0.00 0.00 87 1012.9
20260507114901 74 20 3.0 7.0 0.00 0.00 0.00 87 1012.9
20260507114801 74 335 3.0 5.0 0.00 0.00 0.00 87 1013.0
20260507114700 74 342 2.0 5.0 0.00 0.00 0.00 87 1012.7
20260507114505 74 333 1.0 5.0 0.00 0.00 0.00 87 1012.7
20260507114402 74 10 0.0 5.0 0.00 0.00 0.00 87 1012.7
20260507114301 74 300 0.0 5.0 0.00 0.00 0.00 87 1012.7
20260507114202 74 1 2.0 3.0 0.00 0.00 0.00 87 1012.5
20260507114100 74 264 0.0 3.0 0.00 0.00 0.00 87 1012.6
20260507114006 74 335 2.0 3.0 0.00 0.00 0.00 87 1012.6
20260507113901 74 330 0.0 3.0 0.00 0.00 0.00 87 1012.5
20260507113800 74 217 2.0 3.0 0.00 0.00 0.00 87 1012.4
20260507113505 74 123 0.0 3.0 0.00 0.00 0.00 87 1012.5
20260507113401 74 29 2.0 3.0 0.00 0.00 0.00 87 1012.7
20260507113301 74 241 0.0 1.0 0.00 0.00 0.00 87 1012.8
20260507113201 74 241 0.0 1.0 0.00 0.00 0.00 87 1012.6
20260507113006 74 319 0.0 1.0 0.00 0.00 0.00 87 1012.6
20260507112901 74 319 0.0 1.0 0.00 0.00 0.00 87 1012.4
20260507112801 74 319 0.0 4.0 0.00 0.00 0.00 87 1012.4
20260507112701 74 309 0.0 4.0 0.00 0.00 0.00 87 1012.3
20260507112601 74 309 0.0 4.0 0.00 0.00 0.00 87 1012.2
20260507112506 74 244 0.0 4.0 0.00 0.00 0.00 87 1012.2
20260507112401 74 244 0.0 4.0 0.00 0.00 0.00 87 1012.1
20260507112300 74 244 0.0 4.0 0.00 0.00 0.00 87 1012.0
20260507112202 74 342 0.0 4.0 0.00 0.00 0.00 87 1011.9
20260507112102 74 213 0.0 4.0 0.00 0.00 0.00 87 1012.0
20260507112005 74 272 0.0 4.0 0.00 0.00 0.00 87 1012.0
20260507111901 74 146 0.0 3.0 0.00 0.00 0.00 87 1012.0
20260507111802 74 146 0.0 3.0 0.00 0.00 0.00 87 1011.9
20260507111701 74 146 0.0 3.0 0.00 0.00 0.00 87 1011.9
20260507111600 74 120 0.0 3.0 0.00 0.00 0.00 87 1012.0
20260507111401 74 342 0.0 3.0 0.00 0.00 0.00 87 1012.0
20260507111301 74 125 0.0 3.0 0.00 0.00 0.00 87 1012.0
20260507111200 74 344 0.0 3.0 0.00 0.00 0.00 87 1012.1
20260507111102 74 326 0.0 3.0 0.00 0.00 0.00 87 1012.1
20260507111006 74 351 3.0 3.0 0.00 0.00 0.00 87 1012.1
20260507110900 74 278 0.0 2.0 0.00 0.00 0.00 87 1012.0
20260507110700 74 242 0.0 2.0 0.00 0.00 0.00 87 1012.0
20260507110602 74 297 0.0 2.0 0.00 0.00 0.00 87 1012.0
20260507110505 74 330 0.0 2.0 0.00 0.00 0.00 87 1012.0
20260507110302 74 321 0.0 2.0 0.00 0.00 0.00 87 1011.9
20260507110200 74 321 0.0 2.0 0.00 0.00 0.00 87 1011.8
20260507110007 74 360 0.0 2.0 0.00 0.00 0.00 88 1011.8
20260507105903 74 286 1.0 2.0 0.00 0.00 0.00 87 1011.9
20260507105802 74 333 0.0 2.0 0.00 0.00 0.00 87 1011.8
20260507105703 74 51 0.0 2.0 0.00 0.00 0.00 88 1011.8
20260507105601 74 51 0.0 2.0 0.00 0.00 0.00 88 1011.7
20260507105506 74 10 0.0 2.0 0.00 0.00 0.00 88 1011.7
20260507105402 74 11 0.0 2.0 0.00 0.00 0.00 88 1011.8
20260507105306 74 11 0.0 3.0 0.00 0.00 0.00 88 1011.8
20260507105201 74 342 0.0 3.0 0.00 0.00 0.00 88 1011.8
20260507105102 74 285 0.0 3.0 0.00 0.00 0.00 88 1011.8
20260507105006 74 340 0.0 3.0 0.00 0.00 0.00 88 1011.9
20260507104902 74 123 0.0 3.0 0.00 0.00 0.00 88 1011.9
20260507104801 74 123 0.0 3.0 0.00 0.00 0.00 88 1012.0
20260507104702 74 20 0.0 3.0 0.00 0.00 0.00 88 1011.9
20260507104602 74 20 0.0 3.0 0.00 0.00 0.00 88 1011.9
20260507104507 74 132 0.0 3.0 0.00 0.00 0.00 88 1011.9
20260507104402 74 50 3.0 3.0 0.00 0.00 0.00 88 1011.9
20260507104301 74 13 0.0 2.0 0.00 0.00 0.00 88 1012.0
20260507104202 74 24 1.0 2.0 0.00 0.00 0.00 88 1012.0
20260507104102 74 356 0.0 2.0 0.00 0.00 0.00 88 1012.0
20260507104006 73 356 0.0 2.0 0.00 0.00 0.00 88 1012.0
20260507103902 74 356 0.0 2.0 0.00 0.00 0.00 88 1011.9
20260507103701 73 316 0.0 2.0 0.00 0.00 0.00 88 1012.0
20260507103506 73 316 0.0 4.0 0.00 0.00 0.00 88 1011.9
20260507103401 73 66 2.0 4.0 0.00 0.00 0.00 88 1011.9
20260507103302 73 293 0.0 4.0 0.00 0.00 0.00 88 1012.0
20260507103203 73 293 0.0 4.0 0.00 0.00 0.00 88 1012.0
20260507103103 73 293 0.0 4.0 0.00 0.00 0.00 88 1012.0
20260507103006 73 27 0.0 4.0 0.00 0.00 0.00 88 1012.0
20260507102903 73 27 0.0 4.0 0.00 0.00 0.00 88 1012.0
20260507102702 73 324 2.0 4.0 0.00 0.00 0.00 88 1011.8
20260507102601 73 41 0.0 4.0 0.00 0.00 0.00 88 1011.8
20260507102506 73 23 2.0 4.0 0.00 0.00 0.00 88 1011.8
20260507102401 73 43 0.0 4.0 0.00 0.00 0.00 88 1011.7
20260507102302 73 338 2.0 5.0 0.00 0.00 0.00 88 1011.6
20260507102202 73 26 0.0 5.0 0.00 0.00 0.00 88 1011.6
20260507102101 73 26 0.0 5.0 0.00 0.00 0.00 88 1011.6
20260507102007 73 15 2.0 5.0 0.00 0.00 0.00 88 1011.6
20260507101902 73 105 0.0 5.0 0.00 0.00 0.00 88 1011.6
20260507101803 73 360 0.0 5.0 0.00 0.00 0.00 88 1011.6
20260507101702 73 354 1.0 5.0 0.00 0.00 0.00 88 1011.7
20260507101602 73 127 0.0 5.0 0.00 0.00 0.00 88 1011.6
20260507101302 73 116 1.0 3.0 0.00 0.00 0.00 88 1011.9
20260507101201 73 304 0.0 3.0 0.00 0.00 0.00 88 1011.9
20260507101102 73 304 0.0 3.0 0.00 0.00 0.00 88 1011.9
20260507100902 73 349 0.0 3.0 0.00 0.00 0.00 88 1011.7
20260507100802 73 103 0.0 3.0 0.00 0.00 0.00 88 1011.7
20260507100703 73 108 1.0 3.0 0.00 0.00 0.00 88 1011.8
20260507100506 73 335 0.0 3.0 0.00 0.00 0.00 88 1011.8
20260507100403 73 360 0.0 3.0 0.00 0.00 0.00 88 1011.8
20260507100302 73 63 0.0 3.0 0.00 0.00 0.00 89 1011.9
20260507100201 73 29 0.0 3.0 0.00 0.00 0.00 88 1011.9
20260507100007 73 295 0.0 3.0 0.00 0.00 0.00 89 1011.9
20260507095902 73 316 0.0 3.0 0.00 0.00 0.00 88 1011.8
20260507095801 73 316 0.0 3.0 0.00 0.00 0.00 88 1011.9
20260507095702 73 270 0.0 3.0 0.00 0.00 0.00 89 1012.0
20260507095601 73 349 2.0 3.0 0.00 0.00 0.00 89 1012.0
20260507095505 73 11 2.0 3.0 0.00 0.00 0.00 89 1012.0
20260507095401 73 321 2.0 3.0 0.00 0.00 0.00 89 1012.0
20260507095006 73 307 2.0 2.0 0.00 0.00 0.00 89 1011.8
20260507094902 73 337 0.0 2.0 0.00 0.00 0.00 88 1011.5
20260507094801 73 326 0.0 2.0 0.00 0.00 0.00 89 1011.5
20260507094702 73 330 2.0 2.0 0.00 0.00 0.00 88 1011.5
20260507094505 73 304 0.0 0.0 0.00 0.00 0.00 89 1011.4
20260507094402 73 304 0.0 1.0 0.00 0.00 0.00 88 1011.5
20260507094202 73 304 0.0 1.0 0.00 0.00 0.00 88 1011.4
20260507094104 73 335 0.0 1.0 0.00 0.00 0.00 88 1011.4
20260507094006 73 335 0.0 2.0 0.00 0.00 0.00 88 1011.4
20260507093903 73 294 0.0 2.0 0.00 0.00 0.00 88 1011.5
20260507093802 73 293 0.0 2.0 0.00 0.00 0.00 88 1011.4
20260507093703 73 294 0.0 2.0 0.00 0.00 0.00 88 1011.5
20260507093603 73 293 0.0 2.0 0.00 0.00 0.00 88 1011.4
20260507093505 73 295 0.0 2.0 0.00 0.00 0.00 88 1011.4
20260507093402 73 302 0.0 2.0 0.00 0.00 0.00 88 1011.4
20260507093201 73 302 0.0 2.0 0.00 0.00 0.00 88 1011.4
20260507093103 73 302 0.0 3.0 0.00 0.00 0.00 88 1011.4
20260507093006 73 347 0.0 3.0 0.00 0.00 0.00 88 1011.4
20260507092901 73 323 0.0 3.0 0.00 0.00 0.00 88 1011.1
20260507092801 73 314 0.0 3.0 0.00 0.00 0.00 88 1011.1
20260507092601 73 328 0.0 3.0 0.00 0.00 0.00 88 1011.0
20260507092301 73 153 0.0 3.0 0.00 0.00 0.00 88 1010.9
20260507092202 73 118 1.0 3.0 0.00 0.00 0.00 88 1010.9
20260507092006 73 120 0.0 3.0 0.00 0.00 0.00 88 1010.9
20260507091901 73 48 2.0 3.0 0.00 0.00 0.00 88 1010.7
20260507091702 73 319 0.0 3.0 0.00 0.00 0.00 88 1010.8
20260507091601 73 108 0.0 3.0 0.00 0.00 0.00 88 1010.8
20260507091506 73 129 0.0 3.0 0.00 0.00 0.00 88 1010.8
20260507091401 73 136 3.0 3.0 0.00 0.00 0.00 88 1010.9
20260507091303 73 108 0.0 2.0 0.00 0.00 0.00 88 1010.9
20260507091201 73 120 0.0 2.0 0.00 0.00 0.00 88 1010.9
20260507091102 73 91 0.0 2.0 0.00 0.00 0.00 88 1011.1
20260507091005 73 223 0.0 2.0 0.00 0.00 0.00 88 1011.1
20260507090902 73 223 0.0 2.0 0.00 0.00 0.00 88 1011.1
20260507090802 73 124 0.0 2.0 0.00 0.00 0.00 88 1011.1
20260507090701 73 124 0.0 2.0 0.00 0.00 0.00 88 1011.1
20260507090603 73 124 0.0 2.0 0.00 0.00 0.00 88 1011.1
20260507090505 73 124 0.0 2.0 0.00 0.00 0.00 88 1011.1
20260507090402 73 131 0.0 2.0 0.00 0.00 0.00 88 1011.1
20260507090303 73 149 0.0 2.0 0.00 0.00 0.00 88 1011.1
20260507090202 73 127 0.0 1.0 0.00 0.00 0.00 88 1011.4
20260507090010 73 295 0.0 1.0 0.00 0.00 0.00 87 1011.5
20260507085901 73 347 0.0 0.0 0.00 0.00 0.00 87 1011.6
20260507085702 73 347 0.0 2.0 0.00 0.00 0.00 87 1011.5
20260507085601 73 347 0.0 2.0 0.00 0.00 0.00 87 1011.4
20260507085505 73 347 0.0 2.0 0.00 0.00 0.00 87 1011.4
20260507085401 73 347 0.0 2.0 0.00 0.00 0.00 87 1011.6
20260507085301 73 347 0.0 2.0 0.00 0.00 0.00 87 1011.6
20260507085202 73 347 0.0 2.0 0.00 0.00 0.00 87 1011.5
20260507085100 73 347 0.0 2.0 0.00 0.00 0.00 87 1011.4
20260507085005 73 347 0.0 2.0 0.00 0.00 0.00 87 1011.4
20260507084902 73 330 0.0 2.0 0.00 0.00 0.00 87 1011.7
20260507084801 73 331 0.0 2.0 0.00 0.00 0.00 87 1011.7
20260507084701 73 319 0.0 1.0 0.00 0.00 0.00 87 1011.6
20260507084505 73 319 0.0 2.0 0.00 0.00 0.00 87 1011.7
20260507084401 73 139 0.0 2.0 0.00 0.00 0.00 87 1011.7
20260507084300 73 139 0.0 2.0 0.00 0.00 0.00 87 1011.7
20260507084201 73 321 0.0 2.0 0.00 0.00 0.00 87 1011.7
20260507084007 73 321 0.0 3.0 0.00 0.00 0.00 87 1011.9
20260507083900 73 321 0.0 3.0 0.00 0.00 0.00 87 1011.8
20260507083601 73 86 1.0 3.0 0.00 0.00 0.00 87 1011.9
20260507083504 73 30 0.0 3.0 0.00 0.00 0.00 87 1012.0
20260507083401 73 30 0.0 3.0 0.00 0.00 0.00 87 1011.9
20260507083200 73 344 0.0 4.0 0.00 0.00 0.00 87 1012.0
20260507083101 73 333 3.0 4.0 0.00 0.00 0.00 87 1012.0
20260507083006 73 34 0.0 4.0 0.00 0.00 0.00 87 1012.0
20260507082900 73 19 2.0 4.0 0.00 0.00 0.00 87 1012.1
20260507082801 73 15 0.0 4.0 0.00 0.00 0.00 86 1012.1
20260507082701 73 359 2.0 4.0 0.00 0.00 0.00 86 1012.1
20260507082601 73 338 1.0 4.0 0.00 0.00 0.00 86 1012.0
20260507082506 73 338 0.0 4.0 0.00 0.00 0.00 87 1012.0
20260507082400 73 328 2.0 4.0 0.00 0.00 0.00 86 1012.0
20260507082300 73 38 2.0 4.0 0.00 0.00 0.00 87 1012.0
20260507082201 73 349 2.0 4.0 0.00 0.00 0.00 86 1012.1
20260507081901 73 330 1.0 4.0 0.00 0.00 0.00 86 1012.0
20260507081802 73 295 2.0 4.0 0.00 0.00 0.00 86 1011.9
20260507081600 73 326 0.0 4.0 0.00 0.00 0.00 86 1012.0
20260507081505 73 305 2.0 4.0 0.00 0.00 0.00 86 1012.1
20260507081301 73 289 0.0 5.0 0.00 0.00 0.00 86 1012.2
20260507081101 73 328 1.0 5.0 0.00 0.00 0.00 86 1012.2
20260507081005 73 351 0.0 5.0 0.00 0.00 0.00 86 1012.2
20260507080900 73 323 2.0 5.0 0.00 0.00 0.00 86 1012.0
20260507080803 73 321 0.0 5.0 0.00 0.00 0.00 86 1012.0
20260507080600 73 300 0.0 5.0 0.00 0.00 0.00 86 1012.0
20260507080506 73 8 2.0 5.0 0.00 0.00 0.00 86 1012.0
20260507080400 73 314 0.0 5.0 0.00 0.00 0.00 86 1012.1
20260507080201 73 305 0.0 5.0 0.00 0.00 0.00 86 1012.2
20260507080101 73 249 0.0 5.0 0.00 0.00 0.00 86 1012.1
20260507080007 73 319 1.0 5.0 0.00 0.00 0.00 86 1012.1
20260507075801 73 13 5.0 5.0 0.00 0.00 0.00 86 1012.0
20260507075702 73 352 0.0 6.0 0.00 0.00 0.00 86 1011.9
20260507075601 73 26 3.0 6.0 0.00 0.00 0.00 86 1011.9
20260507075505 73 321 2.0 6.0 0.00 0.00 0.00 86 1011.9
20260507075400 73 321 0.0 6.0 0.00 0.00 0.00 86 1012.0
20260507075301 73 316 0.0 6.0 0.00 0.00 0.00 86 1011.9
20260507075005 73 316 0.0 6.0 0.00 0.00 0.00 86 1012.0
20260507074901 73 215 0.0 6.0 0.00 0.00 0.00 86 1011.9
20260507074801 73 231 0.0 7.0 0.00 0.00 0.00 86 1011.9
20260507074701 73 230 0.0 7.0 0.00 0.00 0.00 86 1011.9
20260507074601 73 340 2.0 7.0 0.00 0.00 0.00 86 1011.9
20260507074303 73 329 0.0 7.0 0.00 0.00 0.00 86 1011.9
20260507074101 73 264 0.0 9.0 0.00 0.00 0.00 86 1011.9
20260507074006 73 331 0.0 9.0 0.00 0.00 0.00 86 1011.9
20260507073901 73 301 1.0 9.0 0.00 0.00 0.00 86 1012.0
20260507073801 73 271 2.0 9.0 0.00 0.00 0.00 86 1011.9
20260507073701 73 36 1.0 9.0 0.00 0.00 0.00 86 1011.9
20260507073600 73 352 0.0 9.0 0.00 0.00 0.00 86 1011.9
20260507073505 73 255 0.0 9.0 0.00 0.00 0.00 86 1011.9
20260507073401 73 311 0.0 9.0 0.00 0.00 0.00 86 1011.9
20260507073200 73 354 2.0 8.0 0.00 0.00 0.00 86 1011.9
20260507073006 73 310 0.0 6.0 0.00 0.00 0.00 86 1011.9
20260507072900 73 136 0.0 6.0 0.00 0.00 0.00 86 1011.8
20260507072800 73 328 1.0 6.0 0.00 0.00 0.00 86 1011.9
20260507072700 73 163 0.0 6.0 0.00 0.00 0.00 86 1011.9
20260507072600 73 337 6.0 6.0 0.00 0.00 0.00 86 1012.0
20260507072504 73 319 3.0 5.0 0.00 0.00 0.00 86 1012.0
20260507072400 73 22 4.0 5.0 0.00 0.00 0.00 86 1012.1
20260507072300 73 239 0.0 4.0 0.00 0.00 0.00 86 1012.1
20260507072006 73 337 1.0 4.0 0.00 0.00 0.00 86 1012.0
20260507071900 73 57 0.0 4.0 0.00 0.00 0.00 86 1012.0
20260507071800 73 162 0.0 4.0 0.00 0.00 0.00 86 1011.8
20260507071701 73 272 0.0 4.0 0.00 0.00 0.00 86 1011.9
20260507071601 73 335 0.0 4.0 0.00 0.00 0.00 86 1011.9
20260507071506 73 345 1.0 4.0 0.00 0.00 0.00 86 1011.9
20260507071401 73 291 3.0 4.0 0.00 0.00 0.00 86 1012.0
20260507071300 73 45 4.0 4.0 0.00 0.00 0.00 86 1012.0
20260507071201 73 354 3.0 4.0 0.00 0.00 0.00 86 1011.9
20260507071101 73 345 1.0 3.0 0.00 0.00 0.00 86 1012.1
20260507071005 73 333 2.0 3.0 0.00 0.00 0.00 86 1011.9
20260507070902 73 349 0.0 4.0 0.00 0.00 0.00 86 1011.8
20260507070700 73 347 3.0 4.0 0.00 0.00 0.00 86 1011.7
20260507070601 73 342 2.0 4.0 0.00 0.00 0.00 86 1011.6
20260507070505 73 321 2.0 4.0 0.00 0.00 0.00 86 1011.6
20260507070402 73 55 0.0 4.0 0.00 0.00 0.00 86 1011.7
20260507070301 73 205 0.0 4.0 0.00 0.00 0.00 86 1011.8
20260507070201 73 38 0.0 4.0 0.00 0.00 0.00 85 1011.9
20260507070100 73 30 1.0 7.0 0.00 0.00 0.00 85 1011.9
20260507070010 73 328 0.0 7.0 0.00 0.00 0.00 85 1011.9
20260507065901 73 245 0.0 7.0 0.00 0.00 0.00 85 1012.0
20260507065801 73 223 0.0 7.0 0.00 0.00 0.00 85 1012.1
20260507065700 73 319 0.0 7.0 0.00 0.00 0.00 85 1012.1
20260507065601 73 258 1.0 7.0 0.00 0.00 0.00 85 1012.1
20260507065505 73 34 0.0 7.0 0.00 0.00 0.00 85 1012.1
20260507065401 73 23 3.0 7.0 0.00 0.00 0.00 85 1012.0
20260507065300 73 32 1.0 7.0 0.00 0.00 0.00 85 1012.0
20260507065201 73 233 2.0 7.0 0.00 0.00 0.00 85 1012.0
20260507065101 73 319 0.0 4.0 0.00 0.00 0.00 85 1012.1
20260507065005 73 233 0.0 3.0 0.00 0.00 0.00 85 1012.1
20260507064801 73 293 2.0 3.0 0.00 0.00 0.00 85 1012.0
20260507064702 73 18 1.0 3.0 0.00 0.00 0.00 85 1012.0
20260507064559 73 323 2.0 3.0 0.00 0.00 0.00 85 1011.9
20260507064505 73 349 2.0 3.0 0.00 0.00 0.00 85 1011.9
20260507064300 73 317 0.0 6.0 0.00 0.00 0.00 85 1012.0
20260507064200 73 342 1.0 6.0 0.00 0.00 0.00 85 1012.0
20260507064100 73 337 0.0 6.0 0.00 0.00 0.00 85 1012.0
20260507064006 73 307 0.0 6.0 0.00 0.00 0.00 85 1012.0
20260507063901 73 236 0.0 6.0 0.00 0.00 0.00 85 1012.0
20260507063800 73 295 2.0 6.0 0.00 0.00 0.00 85 1011.9
20260507063602 73 52 3.0 6.0 0.00 0.00 0.00 85 1012.0
20260507063505 73 280 0.0 6.0 0.00 0.00 0.00 85 1012.0
20260507063401 73 43 0.0 6.0 0.00 0.00 0.00 85 1012.1
20260507063300 73 246 0.0 3.0 0.00 0.00 0.00 85 1012.1
20260507063200 73 304 0.0 3.0 0.00 0.00 0.00 85 1012.2
20260507062802 73 349 0.0 3.0 0.00 0.00 0.00 85 1012.3
20260507062701 73 32 0.0 3.0 0.00 0.00 0.00 85 1012.3
20260507062601 73 239 0.0 5.0 0.00 0.00 0.00 85 1012.3
20260507062505 73 239 0.0 5.0 0.00 0.00 0.00 85 1012.3
20260507062400 73 127 2.0 5.0 0.00 0.00 0.00 85 1012.3
20260507062301 73 15 0.0 5.0 0.00 0.00 0.00 85 1012.3
20260507062200 73 232 0.0 5.0 0.00 0.00 0.00 85 1012.4
20260507062100 73 297 0.0 5.0 0.00 0.00 0.00 85 1012.5
20260507062006 73 296 0.0 5.0 0.00 0.00 0.00 84 1012.5
20260507061600 73 36 1.0 3.0 0.00 0.00 0.00 84 1012.5
20260507061400 73 349 0.0 3.0 0.00 0.00 0.00 84 1012.5
20260507061300 73 295 0.0 3.0 0.00 0.00 0.00 84 1012.5
20260507061200 73 328 0.0 3.0 0.00 0.00 0.00 84 1012.6
20260507061101 73 295 0.0 3.0 0.00 0.00 0.00 84 1012.7
20260507060901 73 37 0.0 3.0 0.00 0.00 0.00 84 1012.6
20260507060800 73 241 0.0 3.0 0.00 0.00 0.00 84 1012.8
20260507060701 73 241 0.0 3.0 0.00 0.00 0.00 84 1012.7
20260507060601 73 360 0.0 4.0 0.00 0.00 0.00 84 1012.7
20260507060506 73 77 0.0 4.0 0.00 0.00 0.00 84 1012.7
20260507060400 73 321 1.0 4.0 0.00 0.00 0.00 84 1012.7
20260507060301 73 317 0.0 4.0 0.00 0.00 0.00 84 1012.7
20260507060201 73 304 0.0 4.0 0.00 0.00 0.00 84 1012.8
20260507060059 73 285 0.0 4.0 0.00 0.00 0.00 84 1012.7
20260507060008 73 149 3.0 4.0 0.00 0.00 0.00 84 1012.7
20260507055903 73 225 0.0 4.0 0.00 0.00 0.00 84 1012.8
20260507055804 73 20 0.0 4.0 0.00 0.00 0.00 84 1012.7
20260507055704 73 326 4.0 5.0 0.00 0.00 0.00 84 1012.6
20260507055603 73 130 0.0 5.0 0.00 0.00 0.00 84 1012.7
20260507055402 73 231 0.0 5.0 0.00 0.00 0.00 84 1012.7
20260507055305 73 36 0.0 5.0 0.00 0.00 0.00 83 1012.7
20260507055203 73 268 0.0 5.0 0.00 0.00 0.00 83 1012.7
20260507055102 73 26 0.0 5.0 0.00 0.00 0.00 83 1012.7
20260507055006 73 174 0.0 5.0 0.00 0.00 0.00 83 1012.8
20260507054903 73 38 1.0 5.0 0.00 0.00 0.00 83 1012.8
20260507054803 73 124 0.0 5.0 0.00 0.00 0.00 83 1012.8
20260507054703 73 321 0.0 4.0 0.00 0.00 0.00 83 1012.8
20260507054603 73 231 0.0 4.0 0.00 0.00 0.00 83 1012.8
20260507054506 73 280 2.0 3.0 0.00 0.00 0.00 83 1012.8
20260507054402 73 211 0.0 3.0 0.00 0.00 0.00 83 1012.7
20260507054303 73 342 0.0 3.0 0.00 0.00 0.00 83 1012.6
20260507054203 73 295 2.0 3.0 0.00 0.00 0.00 83 1012.5
20260507054102 73 46 1.0 3.0 0.00 0.00 0.00 83 1012.5
20260507054006 73 221 0.0 3.0 0.00 0.00 0.00 83 1012.5
20260507053902 73 360 0.0 4.0 0.00 0.00 0.00 83 1012.4
20260507053802 73 171 0.0 4.0 0.00 0.00 0.00 83 1012.4
20260507053604 73 220 1.0 4.0 0.00 0.00 0.00 82 1012.5
20260507053506 73 45 0.0 4.0 0.00 0.00 0.00 82 1012.5
20260507053402 73 20 0.0 4.0 0.00 0.00 0.00 82 1012.6
20260507053303 73 309 2.0 4.0 0.00 0.00 0.00 82 1012.6
20260507053203 73 65 2.0 4.0 0.00 0.00 0.00 82 1012.6
20260507053103 73 290 0.0 4.0 0.00 0.00 0.00 82 1012.5
20260507053007 73 10 3.0 4.0 0.00 0.00 0.00 82 1012.5
20260507052903 73 252 0.0 4.0 0.00 0.00 0.00 82 1012.5
20260507052802 73 24 3.0 4.0 0.00 0.00 0.00 82 1012.4
20260507052703 73 41 0.0 3.0 0.00 0.00 0.00 82 1012.4
20260507052603 73 303 0.0 3.0 0.00 0.00 0.00 82 1012.4
20260507052506 73 253 0.0 4.0 0.00 0.00 0.00 82 1012.4
20260507052403 73 20 3.0 5.0 0.00 0.00 0.00 82 1012.4
20260507052306 73 275 0.0 5.0 0.00 0.00 0.00 82 1012.4
20260507052103 73 264 0.0 5.0 0.00 0.00 0.00 82 1012.4
20260507052005 73 324 0.0 5.0 0.00 0.00 0.00 81 1012.6
20260507051902 73 338 1.0 5.0 0.00 0.00 0.00 81 1012.5
20260507051703 73 285 2.0 5.0 0.00 0.00 0.00 81 1012.5
20260507051505 73 286 2.0 5.0 0.00 0.00 0.00 81 1012.4
20260507051303 73 314 2.0 4.0 0.00 0.00 0.00 81 1012.1
20260507051203 73 3 0.0 4.0 0.00 0.00 0.00 81 1012.0
20260507051007 73 288 1.0 4.0 0.00 0.00 0.00 80 1011.9
20260507050803 73 53 4.0 4.0 0.00 0.00 0.00 80 1012.0
20260507050603 73 125 1.0 5.0 0.00 0.00 0.00 79 1012.0
20260507050402 73 149 0.0 5.0 0.00 0.00 0.00 79 1012.0
20260507050304 73 77 0.0 5.0 0.00 0.00 0.00 79 1012.0
20260507050203 73 223 1.0 5.0 0.00 0.00 0.00 79 1011.9
20260507045903 73 132 0.0 5.0 0.00 0.00 0.00 78 1011.7
20260507045604 73 58 0.0 6.0 0.00 0.00 0.00 78 1011.9
20260507045506 73 266 0.0 6.0 0.00 0.00 0.00 78 1011.9
20260507045403 73 207 0.0 6.0 0.00 0.00 0.00 78 1012.1
20260507045306 73 224 1.0 6.0 0.00 0.00 0.00 77 1012.1
20260507045203 73 117 0.0 6.0 0.00 0.00 0.00 77 1012.2
20260507045007 73 130 0.0 6.0 0.00 0.00 0.00 77 1012.3
20260507044904 73 91 3.0 6.0 0.00 0.00 0.00 77 1012.3
20260507044804 73 310 2.0 4.0 0.00 0.00 0.00 76 1012.3
20260507044703 73 60 2.0 5.0 0.00 0.00 0.00 76 1012.4
20260507044604 73 316 1.0 5.0 0.00 0.00 0.00 76 1012.5
20260507044506 73 125 1.0 5.0 0.00 0.00 0.00 76 1012.5
20260507044204 73 233 0.0 5.0 0.00 0.00 0.00 75 1012.7
20260507044104 73 233 0.0 5.0 0.00 0.00 0.00 75 1012.7
20260507044007 73 50 0.0 5.0 0.00 0.00 0.00 75 1012.8
20260507043903 73 50 0.0 5.0 0.00 0.00 0.00 75 1012.7
20260507043804 73 243 0.0 4.0 0.00 0.00 0.00 75 1012.8
20260507043404 73 15 0.0 4.0 0.00 0.00 0.00 74 1012.7
20260507043205 73 60 3.0 4.0 0.00 0.00 0.00 74 1012.7
20260507043104 73 235 0.0 4.0 0.00 0.00 0.00 74 1012.8
20260507043009 73 136 1.0 4.0 0.00 0.00 0.00 73 1012.8
20260507042804 74 285 0.0 4.0 0.00 0.00 0.00 73 1012.8
20260507042704 74 326 0.0 4.0 0.00 0.00 0.00 73 1012.8
20260507042604 74 256 0.0 4.0 0.00 0.00 0.00 73 1012.8
20260507042506 74 273 2.0 4.0 0.00 0.00 0.00 73 1012.7
20260507042403 74 33 0.0 4.0 0.00 0.00 0.00 73 1012.8
20260507042204 74 301 3.0 4.0 0.00 0.00 0.00 73 1012.9
20260507042105 74 252 0.0 4.0 0.00 0.00 0.00 73 1012.9
20260507042006 74 3 0.0 4.0 0.00 0.00 0.00 72 1012.9
20260507041904 74 257 0.0 4.0 0.00 0.00 0.00 72 1012.9
20260507041804 74 281 1.0 4.0 0.00 0.00 0.00 72 1013.0
20260507041703 74 142 0.0 4.0 0.00 0.00 0.00 72 1013.0
20260507041506 74 28 2.0 5.0 0.00 0.00 0.00 72 1013.1
20260507041404 74 333 0.0 5.0 0.00 0.00 0.00 71 1013.2
20260507041304 74 245 0.0 5.0 0.00 0.00 0.00 71 1013.1
20260507041203 74 252 0.0 5.0 0.00 0.00 0.00 71 1013.0
20260507040904 74 213 1.0 5.0 0.00 0.00 0.00 71 1013.1
20260507040605 74 26 1.0 4.0 0.00 0.00 0.00 70 1013.0
20260507040506 74 15 1.0 3.0 0.00 0.00 0.00 70 1013.0
20260507040403 74 335 1.0 3.0 0.00 0.00 0.00 70 1013.1
20260507040305 74 214 0.0 3.0 0.00 0.00 0.00 70 1013.1
20260507040203 74 286 0.0 3.0 0.00 0.00 0.00 70 1013.1
20260507040105 74 215 0.0 3.0 0.00 0.00 0.00 69 1013.1
20260507040009 74 215 2.0 3.0 0.00 0.00 0.00 69 1013.1
20260507035902 74 282 0.0 3.0 0.00 0.00 0.00 69 1013.3
20260507035803 74 172 0.0 3.0 0.00 0.00 0.00 69 1013.3
20260507035602 74 303 0.0 3.0 0.00 0.00 0.00 69 1013.4
20260507035505 74 288 0.0 3.0 0.00 0.00 0.00 69 1013.4
20260507035403 74 297 2.0 3.0 0.00 0.00 0.00 68 1013.4
20260507035306 74 295 0.0 3.0 0.00 0.00 0.00 68 1013.3
20260507035203 74 263 0.0 3.0 0.00 0.00 0.00 68 1013.3
20260507035005 74 26 0.0 3.0 0.00 0.00 0.00 68 1013.2
20260507034803 74 311 2.0 3.0 0.00 0.00 0.00 68 1012.8
20260507034702 74 321 3.0 3.0 0.00 0.00 0.00 68 1012.7
20260507034603 74 326 0.0 4.0 0.00 0.00 0.00 68 1012.7
20260507034506 74 319 0.0 4.0 0.00 0.00 0.00 67 1012.7
20260507034402 74 317 0.0 4.0 0.00 0.00 0.00 67 1012.7
20260507034303 74 323 0.0 4.0 0.00 0.00 0.00 67 1012.7
20260507034006 75 295 0.0 4.0 0.00 0.00 0.00 67 1012.8
20260507033902 75 295 1.0 4.0 0.00 0.00 0.00 67 1012.7
20260507033802 75 328 0.0 4.0 0.00 0.00 0.00 67 1012.8
20260507033702 75 32 4.0 4.0 0.00 0.00 0.00 67 1013.0
20260507033602 75 309 2.0 3.0 0.00 0.00 0.00 67 1012.9
20260507033506 75 286 0.0 3.0 0.00 0.00 0.00 67 1012.9
20260507033302 75 34 0.0 3.0 0.00 0.00 0.00 67 1013.0
20260507033203 75 234 1.0 3.0 0.00 0.00 0.00 67 1013.1
20260507033103 75 281 0.0 3.0 0.00 0.00 0.00 67 1013.2
20260507033007 75 302 0.0 3.0 0.00 0.00 0.00 67 1013.2
20260507032903 75 124 0.0 3.0 0.00 0.00 0.00 67 1013.3
20260507032803 75 295 2.0 3.0 0.00 0.00 0.00 66 1013.4
20260507032702 75 352 0.0 5.0 0.00 0.00 0.00 66 1013.3
20260507032602 75 231 0.0 5.0 0.00 0.00 0.00 66 1013.4
20260507032505 75 359 2.0 5.0 0.00 0.00 0.00 66 1013.4
20260507032305 75 251 0.0 5.0 0.00 0.00 0.00 66 1013.2
20260507032203 75 309 0.0 5.0 0.00 0.00 0.00 66 1013.1
20260507032103 75 321 0.0 5.0 0.00 0.00 0.00 66 1013.1
20260507032006 75 236 0.0 5.0 0.00 0.00 0.00 66 1013.1
20260507031803 75 238 0.0 5.0 0.00 0.00 0.00 66 1013.1
20260507031702 75 222 1.0 5.0 0.00 0.00 0.00 66 1013.1
20260507031506 75 120 0.0 4.0 0.00 0.00 0.00 66 1013.1
20260507031402 75 134 0.0 4.0 0.00 0.00 0.00 66 1013.2
20260507031302 75 250 2.0 3.0 0.00 0.00 0.00 66 1013.3
20260507031202 75 6 2.0 4.0 0.00 0.00 0.00 66 1013.3
20260507031103 75 247 0.0 4.0 0.00 0.00 0.00 67 1013.5
20260507030902 75 344 0.0 4.0 0.00 0.00 0.00 67 1013.5
20260507030802 75 253 1.0 5.0 0.00 0.00 0.00 67 1013.6
20260507030604 75 255 0.0 5.0 0.00 0.00 0.00 67 1013.7
20260507030402 75 287 0.0 5.0 0.00 0.00 0.00 67 1013.8
20260507030303 75 241 0.0 5.0 0.00 0.00 0.00 67 1013.8
20260507030203 75 317 1.0 5.0 0.00 0.00 0.00 67 1013.7
20260507030104 75 283 0.0 5.0 0.00 0.00 0.00 67 1013.8
20260507025903 76 304 0.0 5.0 0.00 0.00 0.00 67 1013.7
20260507025802 76 240 0.0 5.0 0.00 0.00 0.00 68 1013.7
20260507025701 76 244 1.0 5.0 0.00 0.00 0.00 68 1013.6
20260507025603 76 337 2.0 5.0 0.00 0.00 0.00 68 1013.6
20260507025506 76 344 0.0 5.0 0.00 0.00 0.00 68 1013.6
20260507025404 76 228 3.0 5.0 0.00 0.00 0.00 68 1013.6
20260507025306 76 295 0.0 5.0 0.00 0.00 0.00 68 1013.5
20260507025203 76 240 1.0 5.0 0.00 0.00 0.00 69 1013.5
20260507025006 76 351 0.0 4.0 0.00 0.00 0.00 69 1013.5
20260507024902 76 81 3.0 4.0 0.00 0.00 0.00 69 1013.5
20260507024804 76 236 0.0 4.0 0.00 0.00 0.00 69 1013.4
20260507024603 76 331 0.0 4.0 0.00 0.00 0.00 69 1013.5
20260507024506 76 255 0.0 4.0 0.00 0.00 0.00 69 1013.6
20260507024403 76 319 0.0 4.0 0.00 0.00 0.00 69 1013.6
20260507024302 76 293 2.0 4.0 0.00 0.00 0.00 69 1013.6
20260507024203 76 275 2.0 4.0 0.00 0.00 0.00 69 1013.6
20260507024103 76 333 0.0 4.0 0.00 0.00 0.00 69 1013.6
20260507024006 76 272 1.0 4.0 0.00 0.00 0.00 69 1013.6
20260507023902 76 3 2.0 3.0 0.00 0.00 0.00 69 1013.6
20260507023803 76 298 3.0 3.0 0.00 0.00 0.00 69 1013.5
20260507023702 76 316 2.0 3.0 0.00 0.00 0.00 69 1013.6
20260507023603 76 279 0.0 3.0 0.00 0.00 0.00 69 1013.3
20260507023506 76 264 2.0 3.0 0.00 0.00 0.00 69 1013.2
20260507023302 76 316 0.0 3.0 0.00 0.00 0.00 69 1013.4
20260507023202 76 309 0.0 3.0 0.00 0.00 0.00 69 1013.6
20260507023104 76 340 0.0 6.0 0.00 0.00 0.00 69 1013.7
20260507023008 76 317 1.0 6.0 0.00 0.00 0.00 69 1013.7
20260507022901 76 360 2.0 6.0 0.00 0.00 0.00 70 1013.7
20260507022803 76 354 3.0 6.0 0.00 0.00 0.00 70 1013.6
20260507022702 76 303 1.0 6.0 0.00 0.00 0.00 70 1013.5
20260507022602 76 253 0.0 6.0 0.00 0.00 0.00 70 1013.6
20260507022506 76 172 0.0 6.0 0.00 0.00 0.00 70 1013.6
20260507022402 76 319 0.0 6.0 0.00 0.00 0.00 70 1013.7
20260507022306 76 347 0.0 6.0 0.00 0.00 0.00 70 1013.6
20260507022203 76 351 2.0 5.0 0.00 0.00 0.00 70 1013.5
20260507022103 76 323 3.0 5.0 0.00 0.00 0.00 70 1013.5
20260507022006 76 288 0.0 5.0 0.00 0.00 0.00 70 1013.4
20260507021903 76 321 1.0 5.0 0.00 0.00 0.00 70 1013.3
20260507021802 76 302 2.0 5.0 0.00 0.00 0.00 70 1013.3
20260507021603 77 242 0.0 5.0 0.00 0.00 0.00 70 1013.0
20260507021506 77 284 0.0 5.0 0.00 0.00 0.00 70 1012.9
20260507021404 77 301 0.0 5.0 0.00 0.00 0.00 70 1012.9
20260507021302 77 258 0.0 5.0 0.00 0.00 0.00 70 1012.8
20260507020903 77 264 0.0 4.0 0.00 0.00 0.00 70 1013.0
20260507020803 77 213 0.0 4.0 0.00 0.00 0.00 70 1012.9
20260507020703 77 305 0.0 6.0 0.00 0.00 0.00 70 1012.8
20260507020603 77 294 2.0 6.0 0.00 0.00 0.00 70 1012.7
20260507020505 77 251 0.0 6.0 0.00 0.00 0.00 70 1012.7
20260507020403 77 207 2.0 6.0 0.00 0.00 0.00 70 1012.5
20260507020203 77 283 3.0 6.0 0.00 0.00 0.00 70 1012.6
20260507020103 77 304 0.0 6.0 0.00 0.00 0.00 70 1012.6
20260507020010 77 319 0.0 6.0 0.00 0.00 0.00 70 1012.6
20260507015903 77 247 1.0 6.0 0.00 0.00 0.00 70 1012.7
20260507015802 77 251 2.0 6.0 0.00 0.00 0.00 70 1012.7
20260507015703 77 19 3.0 4.0 0.00 0.00 0.00 70 1012.8
20260507015604 77 207 0.0 4.0 0.00 0.00 0.00 70 1012.8
20260507015506 77 199 1.0 4.0 0.00 0.00 0.00 70 1012.9
20260507015306 77 309 0.0 4.0 0.00 0.00 0.00 70 1013.1
20260507015202 77 259 1.0 4.0 0.00 0.00 0.00 70 1013.1
20260507015102 77 340 0.0 4.0 0.00 0.00 0.00 70 1013.2
20260507015007 77 169 0.0 4.0 0.00 0.00 0.00 70 1013.1
20260507014902 77 234 3.0 6.0 0.00 0.00 0.00 70 1012.9
20260507014804 78 294 1.0 6.0 0.00 0.00 0.00 70 1012.8
20260507014703 78 331 1.0 6.0 0.00 0.00 0.00 70 1012.7
20260507014602 78 282 4.0 6.0 0.00 0.00 0.00 70 1012.7
20260507014506 78 283 2.0 6.0 0.00 0.00 0.00 70 1012.6
20260507014403 78 307 2.0 6.0 0.00 0.00 0.00 70 1012.5
20260507014303 78 165 1.0 6.0 0.00 0.00 0.00 70 1012.6
20260507014202 78 259 1.0 6.0 0.00 0.00 0.00 70 1012.6
20260507014102 78 314 0.0 6.0 0.00 0.00 0.00 70 1012.7
20260507013902 78 209 3.0 4.0 0.00 0.00 0.00 70 1012.6
20260507013802 78 315 1.0 4.0 0.00 0.00 0.00 70 1012.7
20260507013703 78 276 0.0 4.0 0.00 0.00 0.00 70 1012.7
20260507013603 78 79 0.0 4.0 0.00 0.00 0.00 70 1012.8